Observation data for Lomax on 02/13/2018      Previous  Date  Next       Current Mesonet Observations  Soil Data  Daily Summary Page  Observations in Plain Language
KLO1 130600Z 13005KT 01/M09 A3026 RMK A01 T00131085  RH  048%=      5-min Rain = 0
KLO1 130601Z 12005KT 01/M09 A3026 RMK A01 T00131085  RH  048%=      5-min Rain = 0
KLO1 130602Z 13005KT 01/M09 A3026 RMK A01 T00141086  RH  047%=      5-min Rain = 0
KLO1 130603Z 13005KT 01/M09 A3026 RMK A01 T00141087  RH  047%=      5-min Rain = 0
KLO1 130604Z 12006KT 01/M09 A3026 RMK A01 T00121088  RH  047%=      5-min Rain = 0
KLO1 130605Z 12006KT 01/M09 A3026 RMK A01 T00121089  RH  047%=      5-min Rain = 0
KLO1 130606Z 12005KT 01/M09 A3026 RMK A01 T00121090  RH  047%=      5-min Rain = 0
KLO1 130607Z 12004KT 01/M09 A3026 RMK A01 T00111091  RH  046%=      5-min Rain = 0
KLO1 130608Z 12004KT 01/M09 A3026 RMK A01 T00111091  RH  047%=      5-min Rain = 0
KLO1 130609Z 12004KT 01/M09 A3026 RMK A01 T00111089  RH  047%=      5-min Rain = 0
KLO1 130610Z 12004KT 01/M09 A3026 RMK A01 T00111089  RH  047%=      5-min Rain = 0
KLO1 130611Z 12005KT 01/M09 A3026 RMK A01 T00101089  RH  047%=      5-min Rain = 0
KLO1 130612Z 12005KT 01/M09 A3026 RMK A01 T00101089  RH  048%=      5-min Rain = 0
KLO1 130613Z 11005KT 01/M09 A3026 RMK A01 T00101088  RH  048%=      5-min Rain = 0
KLO1 130614Z 11006KT 01/M09 A3026 RMK A01 T00101087  RH  048%=      5-min Rain = 0
KLO1 130615Z 11006KT 01/M09 A3026 RMK A01 T00121086  RH  048%=      5-min Rain = 0
KLO1 130616Z 11006KT 01/M09 A3026 RMK A01 T00141086  RH  048%=      5-min Rain = 0
KLO1 130617Z 11005KT 01/M09 A3026 RMK A01 T00141087  RH  047%=      5-min Rain = 0
KLO1 130618Z 11005KT 02/M09 A3026 RMK A01 T00151087  RH  047%=      5-min Rain = 0
KLO1 130619Z 11005KT 02/M09 A3025 RMK A01 T00151087  RH  046%=      5-min Rain = 0
KLO1 130620Z 11005KT 02/M09 A3025 RMK A01 T00151088  RH  046%=      5-min Rain = 0
KLO1 130621Z 11005KT 02/M09 A3025 RMK A01 T00151089  RH  046%=      5-min Rain = 0
KLO1 130622Z 11005KT 02/M09 A3025 RMK A01 T00151090  RH  046%=      5-min Rain = 0
KLO1 130623Z 11005KT 01/M09 A3025 RMK A01 T00141091  RH  046%=      5-min Rain = 0
KLO1 130624Z 11006KT 01/M09 A3025 RMK A01 T00141089  RH  046%=      5-min Rain = 0
KLO1 130625Z 11006KT 01/M09 A3025 RMK A01 T00141088  RH  046%=      5-min Rain = 0
KLO1 130626Z 11006KT 02/M09 A3026 RMK A01 T00151088  RH  046%=      5-min Rain = 0
KLO1 130627Z 11006KT 02/M09 A3026 RMK A01 T00151089  RH  046%=      5-min Rain = 0
KLO1 130628Z 11006KT 02/M09 A3025 RMK A01 T00151090  RH  046%=      5-min Rain = 0
KLO1 130629Z 11006KT 02/M09 A3025 RMK A01 T00151090  RH  046%=      5-min Rain = 0
KLO1 130630Z 11006KT 01/M09 A3025 RMK A01 T00141091  RH  046%=      5-min Rain = 0
KLO1 130631Z 11006KT 01/M09 A3025 RMK A01 T00141091  RH  045%=      5-min Rain = 0
KLO1 130632Z 11006KT 01/M09 A3025 RMK A01 T00131092  RH  045%=      5-min Rain = 0
KLO1 130633Z 11006KT 01/M09 A3025 RMK A01 T00131091  RH  046%=      5-min Rain = 0
KLO1 130634Z 11006KT 01/M09 A3025 RMK A01 T00131091  RH  046%=      5-min Rain = 0
KLO1 130635Z 11006KT 01/M09 A3025 RMK A01 T00121093  RH  046%=      5-min Rain = 0
KLO1 130636Z 11006KT 01/M09 A3025 RMK A01 T00111094  RH  046%=      5-min Rain = 0
KLO1 130637Z 11006KT 01/M09 A3025 RMK A01 T00101094  RH  046%=      5-min Rain = 0
KLO1 130638Z 11007KT 01/M10 A3025 RMK A01 T00091095  RH  046%=      5-min Rain = 0
KLO1 130639Z 11007KT 01/M09 A3025 RMK A01 T00091093  RH  046%=      5-min Rain = 0
KLO1 130640Z 11007KT 01/M09 A3025 RMK A01 T00101092  RH  047%=      5-min Rain = 0
KLO1 130641Z 11007KT 01/M09 A3025 RMK A01 T00101093  RH  046%=      5-min Rain = 0
KLO1 130642Z 11007KT 01/M09 A3025 RMK A01 T00091094  RH  046%=      5-min Rain = 0
KLO1 130643Z 11007KT 01/M09 A3025 RMK A01 T00091094  RH  046%=      5-min Rain = 0
KLO1 130644Z 11007KT 01/M09 A3025 RMK A01 T00081094  RH  046%=      5-min Rain = 0
KLO1 130645Z 11007KT 01/M09 A3025 RMK A01 T00091093  RH  047%=      5-min Rain = 0
KLO1 130646Z 11007KT 01/M09 A3024 RMK A01 T00081093  RH  047%=      5-min Rain = 0
KLO1 130647Z 11007KT 01/M09 A3024 RMK A01 T00091093  RH  047%=      5-min Rain = 0
KLO1 130648Z 11007KT 01/M09 A3024 RMK A01 T00091093  RH  047%=      5-min Rain = 0
KLO1 130649Z 11007KT 01/M09 A3024 RMK A01 T00091092  RH  047%=      5-min Rain = 0
KLO1 130650Z 11007KT 01/M09 A3025 RMK A01 T00091091  RH  047%=      5-min Rain = 0
KLO1 130651Z 11007KT 01/M09 A3025 RMK A01 T00091092  RH  047%=      5-min Rain = 0
KLO1 130652Z 11007KT 01/M09 A3025 RMK A01 T00091091  RH  047%=      5-min Rain = 0
KLO1 130653Z 11008KT 01/M09 A3025 RMK A01 T00091091  RH  047%=      5-min Rain = 0
KLO1 130654Z 11008KT 01/M09 A3025 RMK A01 T00091091  RH  047%=      5-min Rain = 0
KLO1 130655Z 11008KT 01/M09 A3025 RMK A01 T00091091  RH  047%=      5-min Rain = 0
KLO1 130656Z 11008KT 01/M09 A3024 RMK A01 T00091091  RH  047%=      5-min Rain = 0
KLO1 130657Z 11008KT 01/M09 A3024 RMK A01 T00091091  RH  047%=      5-min Rain = 0
KLO1 130658Z 11007KT 01/M09 A3024 RMK A01 T00091090  RH  047%=      5-min Rain = 0
KLO1 130659Z 11007KT 01/M09 A3024 RMK A01 T00091090  RH  047%=      5-min Rain = 0
KLO1 130700Z 11007KT 01/M09 A3024 RMK A01 T00091090  RH  048%=      5-min Rain = 0
KLO1 130701Z 11006KT 01/M09 A3024 RMK A01 T00091090  RH  048%=      5-min Rain = 0
KLO1 130702Z 11006KT 01/M09 A3024 RMK A01 T00091090  RH  048%=      5-min Rain = 0
KLO1 130703Z 11006KT 01/M09 A3024 RMK A01 T00091090  RH  048%=      5-min Rain = 0
KLO1 130704Z 11006KT 01/M09 A3024 RMK A01 T00091090  RH  048%=      5-min Rain = 0
KLO1 130705Z 11006KT 01/M09 A3024 RMK A01 T00081090  RH  048%=      5-min Rain = 0
KLO1 130706Z 11007KT 01/M09 A3024 RMK A01 T00081089  RH  048%=      5-min Rain = 0
KLO1 130707Z 10006KT 01/M09 A3024 RMK A01 T00091089  RH  048%=      5-min Rain = 0
KLO1 130708Z 10006KT 01/M09 A3024 RMK A01 T00081089  RH  048%=      5-min Rain = 0
KLO1 130709Z 10006KT 01/M09 A3024 RMK A01 T00091088  RH  048%=      5-min Rain = 0
KLO1 130710Z 10005KT 01/M09 A3024 RMK A01 T00091088  RH  048%=      5-min Rain = 0
KLO1 130711Z 10006KT 01/M09 A3025 RMK A01 T00091089  RH  048%=      5-min Rain = 0
KLO1 130712Z 10005KT 01/M09 A3025 RMK A01 T00091088  RH  048%=      5-min Rain = 0
KLO1 130713Z 11005KT 01/M09 A3025 RMK A01 T00091088  RH  048%=      5-min Rain = 0
KLO1 130714Z 11006KT 01/M09 A3025 RMK A01 T00091088  RH  048%=      5-min Rain = 0
KLO1 130715Z 11006KT 01/M09 A3025 RMK A01 T00091087  RH  049%=      5-min Rain = 0
KLO1 130716Z 11006KT 01/M09 A3025 RMK A01 T00091087  RH  049%=      5-min Rain = 0
KLO1 130717Z 11006KT 01/M09 A3025 RMK A01 T00091087  RH  049%=      5-min Rain = 0
KLO1 130718Z 11006KT 01/M09 A3024 RMK A01 T00081087  RH  049%=      5-min Rain = 0
KLO1 130719Z 11006KT 01/M09 A3024 RMK A01 T00081087  RH  049%=      5-min Rain = 0
KLO1 130720Z 11006KT 01/M09 A3024 RMK A01 T00081088  RH  049%=      5-min Rain = 0
KLO1 130721Z 11006KT 01/M09 A3024 RMK A01 T00071088  RH  049%=      5-min Rain = 0
KLO1 130722Z 11006KT 01/M09 A3024 RMK A01 T00071088  RH  049%=      5-min Rain = 0
KLO1 130723Z 11006KT 01/M09 A3024 RMK A01 T00061088  RH  049%=      5-min Rain = 0
KLO1 130724Z 11006KT 01/M09 A3024 RMK A01 T00051088  RH  050%=      5-min Rain = 0
KLO1 130725Z 11006KT 01/M09 A3024 RMK A01 T00061087  RH  050%=      5-min Rain = 0
KLO1 130726Z 11006KT 01/M09 A3024 RMK A01 T00051087  RH  050%=      5-min Rain = 0
KLO1 130727Z 11006KT 01/M09 A3024 RMK A01 T00061086  RH  050%=      5-min Rain = 0
KLO1 130728Z 11006KT 01/M09 A3024 RMK A01 T00051086  RH  050%=      5-min Rain = 0
KLO1 130729Z 11006KT 01/M09 A3024 RMK A01 T00051086  RH  050%=      5-min Rain = 0
KLO1 130730Z 11006KT 01/M09 A3024 RMK A01 T00051086  RH  050%=      5-min Rain = 0
KLO1 130731Z 11006KT 01/M09 A3024 RMK A01 T00051086  RH  051%=      5-min Rain = 0
KLO1 130732Z 11006KT 01/M09 A3024 RMK A01 T00061085  RH  051%=      5-min Rain = 0
KLO1 130733Z 11006KT 01/M09 A3024 RMK A01 T00051085  RH  051%=      5-min Rain = 0
KLO1 130734Z 11006KT 01/M09 A3024 RMK A01 T00051085  RH  051%=      5-min Rain = 0
KLO1 130735Z 10006KT 01/M08 A3024 RMK A01 T00051084  RH  051%=      5-min Rain = 0
KLO1 130736Z 10006KT 01/M09 A3024 RMK A01 T00051085  RH  051%=      5-min Rain = 0
KLO1 130737Z 10006KT 00/M09 A3024 RMK A01 T00041085  RH  051%=      5-min Rain = 0
KLO1 130738Z 10006KT 00/M09 A3024 RMK A01 T00041085  RH  051%=      5-min Rain = 0
KLO1 130739Z 10005KT 00/M09 A3024 RMK A01 T00031085  RH  051%=      5-min Rain = 0
KLO1 130740Z 10005KT 00/M09 A3024 RMK A01 T00031085  RH  052%=      5-min Rain = 0
KLO1 130741Z 10005KT 00/M08 A3024 RMK A01 T00031084  RH  052%=      5-min Rain = 0
KLO1 130742Z 10005KT 00/M08 A3024 RMK A01 T00031084  RH  052%=      5-min Rain = 0
KLO1 130743Z 10005KT 00/M08 A3024 RMK A01 T00031084  RH  052%=      5-min Rain = 0
KLO1 130744Z 10005KT 00/M08 A3024 RMK A01 T00021084  RH  052%=      5-min Rain = 0
KLO1 130745Z 10005KT 00/M08 A3024 RMK A01 T00021084  RH  053%=      5-min Rain = 0
KLO1 130746Z 10004KT 00/M08 A3024 RMK A01 T00021083  RH  053%=      5-min Rain = 0
KLO1 130747Z 10004KT 00/M08 A3024 RMK A01 T00021083  RH  053%=      5-min Rain = 0
KLO1 130748Z 10004KT 00/M08 A3024 RMK A01 T00021083  RH  053%=      5-min Rain = 0
KLO1 130749Z 10004KT 00/M08 A3024 RMK A01 T00021082  RH  053%=      5-min Rain = 0
KLO1 130750Z 10004KT 00/M08 A3024 RMK A01 T00021082  RH  053%=      5-min Rain = 0
KLO1 130751Z 10005KT 00/M08 A3024 RMK A01 T00011082  RH  053%=      5-min Rain = 0
KLO1 130752Z 10005KT 00/M08 A3024 RMK A01 T00011082  RH  053%=      5-min Rain = 0
KLO1 130753Z 10005KT 00/08 A3023 RMK A01 T00000-83  RH  054%=      5-min Rain = 0
KLO1 130754Z 10005KT 00/08 A3023 RMK A01 T00-00-83  RH  054%=      5-min Rain = 0
KLO1 130755Z 10005KT M00/M08 A3023 RMK A01 T10011083  RH  054%=      5-min Rain = 0
KLO1 130756Z 10006KT M00/M08 A3023 RMK A01 T10011083  RH  054%=      5-min Rain = 0
KLO1 130757Z 10006KT M00/M08 A3023 RMK A01 T10011083  RH  054%=      5-min Rain = 0
KLO1 130758Z 10006KT M00/M08 A3023 RMK A01 T10011083  RH  054%=      5-min Rain = 0
KLO1 130759Z 10005KT M00/M08 A3023 RMK A01 T10011083  RH  054%=      5-min Rain = 0
KLO1 130800Z 10005KT M00/M08 A3023 RMK A01 T10011083  RH  054%=      5-min Rain = 0
KLO1 130801Z 10005KT M00/M08 A3023 RMK A01 T10021083  RH  054%=      5-min Rain = 0
KLO1 130802Z 10005KT M00/M08 A3023 RMK A01 T10021083  RH  054%=      5-min Rain = 0
KLO1 130803Z 10005KT M00/M08 A3023 RMK A01 T10021082  RH  055%=      5-min Rain = 0
KLO1 130804Z 10005KT M00/M08 A3023 RMK A01 T10021082  RH  055%=      5-min Rain = 0
KLO1 130805Z 10005KT M00/M08 A3023 RMK A01 T10011081  RH  055%=      5-min Rain = 0
KLO1 130806Z 10005KT M00/M08 A3023 RMK A01 T10011081  RH  055%=      5-min Rain = 0
KLO1 130807Z 10005KT M00/M08 A3023 RMK A01 T10011080  RH  055%=      5-min Rain = 0
KLO1 130808Z 10006KT M00/M08 A3023 RMK A01 T10011080  RH  055%=      5-min Rain = 0
KLO1 130809Z 10005KT 00/08 A3023 RMK A01 T00-00-80  RH  055%=      5-min Rain = 0
KLO1 130810Z 10005KT 00/08 A3023 RMK A01 T00-00-81  RH  055%=      5-min Rain = 0
KLO1 130811Z 10005KT 00/08 A3023 RMK A01 T00-00-81  RH  055%=      5-min Rain = 0
KLO1 130812Z 10005KT M00/M08 A3023 RMK A01 T10011081  RH  055%=      5-min Rain = 0
KLO1 130813Z 11005KT M00/M08 A3023 RMK A01 T10011082  RH  055%=      5-min Rain = 0
KLO1 130814Z 11005KT M00/M08 A3023 RMK A01 T10011082  RH  055%=      5-min Rain = 0
KLO1 130815Z 11005KT M00/M08 A3023 RMK A01 T10021082  RH  055%=      5-min Rain = 0
KLO1 130816Z 11005KT M00/M08 A3023 RMK A01 T10021082  RH  055%=      5-min Rain = 0
KLO1 130817Z 11005KT M00/M08 A3024 RMK A01 T10021082  RH  055%=      5-min Rain = 0
KLO1 130818Z 11005KT M00/M08 A3024 RMK A01 T10021082  RH  055%=      5-min Rain = 0
KLO1 130819Z 11005KT M00/M08 A3024 RMK A01 T10011081  RH  055%=      5-min Rain = 0
KLO1 130820Z 11005KT M00/M08 A3024 RMK A01 T10011081  RH  055%=      5-min Rain = 0
KLO1 130821Z 11004KT M00/M08 A3024 RMK A01 T10011081  RH  055%=      5-min Rain = 0
KLO1 130822Z 11004KT M00/M08 A3024 RMK A01 T10011081  RH  055%=      5-min Rain = 0
KLO1 130823Z 12004KT M00/M08 A3024 RMK A01 T10011082  RH  055%=      5-min Rain = 0
KLO1 130824Z 12004KT M00/M08 A3024 RMK A01 T10011082  RH  054%=      5-min Rain = 0
KLO1 130825Z 11003KT M00/M08 A3024 RMK A01 T10021082  RH  055%=      5-min Rain = 0
KLO1 130826Z 11003KT M00/M08 A3024 RMK A01 T10021082  RH  055%=      5-min Rain = 0
KLO1 130827Z 12003KT M00/M08 A3024 RMK A01 T10021083  RH  055%=      5-min Rain = 0
KLO1 130828Z 11003KT M00/M08 A3024 RMK A01 T10031083  RH  055%=      5-min Rain = 0
KLO1 130829Z 11003KT M00/M08 A3024 RMK A01 T10031083  RH  055%=      5-min Rain = 0
KLO1 130830Z 11002KT M00/M08 A3024 RMK A01 T10031082  RH  055%=      5-min Rain = 0
KLO1 130831Z 11002KT M00/M08 A3024 RMK A01 T10031082  RH  055%=      5-min Rain = 0
KLO1 130832Z 11003KT M00/M08 A3024 RMK A01 T10031082  RH  055%=      5-min Rain = 0
KLO1 130833Z 10003KT M00/M08 A3024 RMK A01 T10041083  RH  055%=      5-min Rain = 0
KLO1 130834Z 11003KT M00/M08 A3024 RMK A01 T10041083  RH  055%=      5-min Rain = 0
KLO1 130835Z 10003KT M01/M08 A3024 RMK A01 T10051084  RH  055%=      5-min Rain = 0
KLO1 130836Z 10003KT M01/M08 A3024 RMK A01 T10051083  RH  055%=      5-min Rain = 0
KLO1 130837Z 10003KT M01/M08 A3024 RMK A01 T10051084  RH  055%=      5-min Rain = 0
KLO1 130838Z 10003KT M01/M08 A3024 RMK A01 T10061084  RH  055%=      5-min Rain = 0
KLO1 130839Z 10003KT M01/M08 A3024 RMK A01 T10061084  RH  056%=      5-min Rain = 0
KLO1 130840Z 10002KT M01/M08 A3024 RMK A01 T10061083  RH  056%=      5-min Rain = 0
KLO1 130841Z 10003KT M01/M08 A3024 RMK A01 T10061083  RH  056%=      5-min Rain = 0
KLO1 130842Z 10003KT M01/M08 A3024 RMK A01 T10071082  RH  057%=      5-min Rain = 0
KLO1 130843Z 10003KT M01/M08 A3024 RMK A01 T10071082  RH  057%=      5-min Rain = 0
KLO1 130844Z 10003KT M01/M08 A3024 RMK A01 T10071081  RH  057%=      5-min Rain = 0
KLO1 130845Z 10004KT M01/M08 A3024 RMK A01 T10071081  RH  057%=      5-min Rain = 0
KLO1 130846Z 11004KT M01/M08 A3024 RMK A01 T10071081  RH  057%=      5-min Rain = 0
KLO1 130847Z 11004KT M01/M08 A3024 RMK A01 T10061081  RH  057%=      5-min Rain = 0
KLO1 130848Z 11004KT M01/M08 A3024 RMK A01 T10061081  RH  057%=      5-min Rain = 0
KLO1 130849Z 11004KT M01/M08 A3024 RMK A01 T10061082  RH  057%=      5-min Rain = 0
KLO1 130850Z 11005KT M01/M08 A3024 RMK A01 T10061083  RH  056%=      5-min Rain = 0
KLO1 130851Z 11005KT M01/M09 A3024 RMK A01 T10071085  RH  056%=      5-min Rain = 0
KLO1 130852Z 11005KT M01/M09 A3024 RMK A01 T10081086  RH  056%=      5-min Rain = 0
KLO1 130853Z 11005KT M01/M09 A3024 RMK A01 T10091087  RH  055%=      5-min Rain = 0
KLO1 130854Z 11005KT M01/M09 A3024 RMK A01 T10101088  RH  055%=      5-min Rain = 0
KLO1 130855Z 10005KT M01/M09 A3024 RMK A01 T10101089  RH  055%=      5-min Rain = 0
KLO1 130856Z 10004KT M01/M09 A3024 RMK A01 T10111090  RH  055%=      5-min Rain = 0
KLO1 130857Z 10004KT M01/M09 A3024 RMK A01 T10121091  RH  055%=      5-min Rain = 0
KLO1 130858Z 10004KT M01/M09 A3024 RMK A01 T10121091  RH  055%=      5-min Rain = 0
KLO1 130859Z 10004KT M01/M09 A3024 RMK A01 T10121091  RH  055%=      5-min Rain = 0
KLO1 130900Z 10003KT M01/M09 A3024 RMK A01 T10131090  RH  056%=      5-min Rain = 0
KLO1 130901Z 10003KT M01/M09 A3024 RMK A01 T10131089  RH  056%=      5-min Rain = 0
KLO1 130902Z 10003KT M01/M09 A3024 RMK A01 T10131088  RH  057%=      5-min Rain = 0
KLO1 130903Z 10003KT M01/M09 A3024 RMK A01 T10131088  RH  057%=      5-min Rain = 0
KLO1 130904Z 10004KT M01/M09 A3024 RMK A01 T10141087  RH  057%=      5-min Rain = 0
KLO1 130905Z 10004KT M01/M09 A3024 RMK A01 T10131086  RH  058%=      5-min Rain = 0
KLO1 130906Z 10004KT M01/M09 A3024 RMK A01 T10131086  RH  058%=      5-min Rain = 0
KLO1 130907Z 10004KT M01/M09 A3024 RMK A01 T10121085  RH  058%=      5-min Rain = 0
KLO1 130908Z 10005KT M01/M08 A3024 RMK A01 T10111084  RH  058%=      5-min Rain = 0
KLO1 130909Z 10004KT M01/M08 A3024 RMK A01 T10101084  RH  057%=      5-min Rain = 0
KLO1 130910Z 10004KT M01/M08 A3024 RMK A01 T10091084  RH  057%=      5-min Rain = 0
KLO1 130911Z 10004KT M01/M08 A3024 RMK A01 T10081084  RH  057%=      5-min Rain = 0
KLO1 130912Z 10004KT M01/M08 A3024 RMK A01 T10081084  RH  056%=      5-min Rain = 0
KLO1 130913Z 10004KT M01/M08 A3024 RMK A01 T10081084  RH  056%=      5-min Rain = 0
KLO1 130914Z 10004KT M01/M08 A3024 RMK A01 T10081084  RH  056%=      5-min Rain = 0
KLO1 130915Z 10004KT M01/M09 A3024 RMK A01 T10081085  RH  056%=      5-min Rain = 0
KLO1 130916Z 09004KT M01/M09 A3024 RMK A01 T10081085  RH  056%=      5-min Rain = 0
KLO1 130917Z 09004KT M01/M08 A3024 RMK A01 T10081084  RH  056%=      5-min Rain = 0
KLO1 130918Z 09004KT M01/M08 A3024 RMK A01 T10071082  RH  057%=      5-min Rain = 0
KLO1 130919Z 09004KT M01/M08 A3024 RMK A01 T10071082  RH  057%=      5-min Rain = 0
KLO1 130920Z 08004KT M01/M08 A3024 RMK A01 T10071082  RH  057%=      5-min Rain = 0
KLO1 130921Z 08004KT M01/M08 A3024 RMK A01 T10071082  RH  057%=      5-min Rain = 0
KLO1 130922Z 08003KT M01/M09 A3024 RMK A01 T10081085  RH  056%=      5-min Rain = 0
KLO1 130923Z 08003KT M01/M09 A3024 RMK A01 T10101087  RH  056%=      5-min Rain = 0
KLO1 130924Z 08003KT M01/M09 A3024 RMK A01 T10111087  RH  056%=      5-min Rain = 0
KLO1 130925Z 08003KT M01/M09 A3024 RMK A01 T10121086  RH  057%=      5-min Rain = 0
KLO1 130926Z 09002KT M01/M08 A3024 RMK A01 T10121084  RH  058%=      5-min Rain = 0
KLO1 130927Z 09002KT M01/M08 A3024 RMK A01 T10111083  RH  058%=      5-min Rain = 0
KLO1 130928Z 10002KT M01/M08 A3024 RMK A01 T10101082  RH  058%=      5-min Rain = 0
KLO1 130929Z 10002KT M01/M08 A3025 RMK A01 T10101082  RH  058%=      5-min Rain = 0
KLO1 130930Z 11002KT M01/M08 A3025 RMK A01 T10091082  RH  058%=      5-min Rain = 0
KLO1 130931Z 11003KT M01/M08 A3024 RMK A01 T10091081  RH  058%=      5-min Rain = 0
KLO1 130932Z 12003KT M01/M08 A3024 RMK A01 T10091082  RH  058%=      5-min Rain = 0
KLO1 130933Z 12002KT M01/M08 A3024 RMK A01 T10091082  RH  058%=      5-min Rain = 0
KLO1 130934Z 13002KT M01/M08 A3024 RMK A01 T10091082  RH  057%=      5-min Rain = 0
KLO1 130935Z 13003KT M01/M08 A3024 RMK A01 T10081082  RH  058%=      5-min Rain = 0
KLO1 130936Z 13003KT M01/M08 A3024 RMK A01 T10081081  RH  058%=      5-min Rain = 0
KLO1 130937Z 13003KT M01/M08 A3024 RMK A01 T10071081  RH  057%=      5-min Rain = 0
KLO1 130938Z 13003KT M01/M08 A3024 RMK A01 T10071081  RH  057%=      5-min Rain = 0
KLO1 130939Z 13003KT M01/M08 A3024 RMK A01 T10071083  RH  057%=      5-min Rain = 0
KLO1 130940Z 12003KT M01/M08 A3024 RMK A01 T10071084  RH  056%=      5-min Rain = 0
KLO1 130941Z 11002KT M01/M08 A3024 RMK A01 T10071084  RH  056%=      5-min Rain = 0
KLO1 130942Z 11002KT M01/M09 A3024 RMK A01 T10081085  RH  056%=      5-min Rain = 0
KLO1 130943Z 11002KT M01/M09 A3025 RMK A01 T10081085  RH  056%=      5-min Rain = 0
KLO1 130944Z 11001KT M01/M09 A3025 RMK A01 T10081085  RH  056%=      5-min Rain = 0
KLO1 130945Z 11001KT M01/M09 A3025 RMK A01 T10091086  RH  056%=      5-min Rain = 0
KLO1 130946Z 11001KT M01/M09 A3025 RMK A01 T10091085  RH  056%=      5-min Rain = 0
KLO1 130947Z 11001KT M01/M09 A3025 RMK A01 T10091085  RH  057%=      5-min Rain = 0
KLO1 130948Z 11001KT M01/M08 A3025 RMK A01 T10091084  RH  057%=      5-min Rain = 0
KLO1 130949Z 11001KT M01/M08 A3025 RMK A01 T10081083  RH  057%=      5-min Rain = 0
KLO1 130950Z 11001KT M01/M08 A3025 RMK A01 T10081082  RH  057%=      5-min Rain = 0
KLO1 130951Z 11001KT M01/M08 A3025 RMK A01 T10071082  RH  057%=      5-min Rain = 0
KLO1 130952Z 11001KT M01/M08 A3025 RMK A01 T10071081  RH  057%=      5-min Rain = 0
KLO1 130953Z 11002KT M01/M08 A3025 RMK A01 T10071082  RH  057%=      5-min Rain = 0
KLO1 130954Z 11002KT M01/M08 A3025 RMK A01 T10071081  RH  057%=      5-min Rain = 0
KLO1 130955Z 12002KT M01/M08 A3025 RMK A01 T10071081  RH  057%=      5-min Rain = 0
KLO1 130956Z 12002KT M01/M08 A3025 RMK A01 T10071081  RH  057%=      5-min Rain = 0
KLO1 130957Z 12002KT M01/M08 A3025 RMK A01 T10071081  RH  057%=      5-min Rain = 0
KLO1 130958Z 13002KT M01/M08 A3025 RMK A01 T10071082  RH  057%=      5-min Rain = 0
KLO1 130959Z 14002KT M01/M08 A3025 RMK A01 T10061081  RH  057%=      5-min Rain = 0
KLO1 131000Z 14001KT M01/M08 A3025 RMK A01 T10061082  RH  056%=      5-min Rain = 0
KLO1 131001Z 13001KT M01/M08 A3025 RMK A01 T10061082  RH  056%=      5-min Rain = 0
KLO1 131002Z 14001KT M01/M08 A3026 RMK A01 T10061083  RH  056%=      5-min Rain = 0
KLO1 131003Z 14000KT M01/M08 A3026 RMK A01 T10061083  RH  056%=      5-min Rain = 0
KLO1 131004Z 14000KT M01/M08 A3026 RMK A01 T10061083  RH  056%=      5-min Rain = 0
KLO1 131005Z 00000KT M01/M08 A3026 RMK A01 T10061084  RH  056%=      5-min Rain = 0
KLO1 131006Z 00000KT M01/M09 A3026 RMK A01 T10061085  RH  055%=      5-min Rain = 0
KLO1 131007Z 00000KT M01/M08 A3026 RMK A01 T10071084  RH  056%=      5-min Rain = 0
KLO1 131008Z 00000KT M01/M08 A3026 RMK A01 T10061083  RH  056%=      5-min Rain = 0
KLO1 131009Z 00000KT M01/M08 A3026 RMK A01 T10061084  RH  056%=      5-min Rain = 0
KLO1 131010Z 00000KT M01/M08 A3026 RMK A01 T10061083  RH  056%=      5-min Rain = 0
KLO1 131011Z 19000KT M01/M08 A3026 RMK A01 T10051082  RH  056%=      5-min Rain = 0
KLO1 131012Z 00000KT M01/M08 A3026 RMK A01 T10051084  RH  055%=      5-min Rain = 0
KLO1 131013Z 00000KT M01/M09 A3026 RMK A01 T10071087  RH  055%=      5-min Rain = 0
KLO1 131014Z 00000KT M01/M09 A3026 RMK A01 T10081086  RH  055%=      5-min Rain = 0
KLO1 131015Z 00000KT M01/M09 A3026 RMK A01 T10091088  RH  055%=      5-min Rain = 0
KLO1 131016Z 00000KT M01/M09 A3026 RMK A01 T10101089  RH  055%=      5-min Rain = 0
KLO1 131017Z 00000KT M01/M09 A3026 RMK A01 T10121091  RH  055%=      5-min Rain = 0
KLO1 131018Z 00000KT M01/M09 A3026 RMK A01 T10141094  RH  054%=      5-min Rain = 0
KLO1 131019Z 00000KT M02/M10 A3026 RMK A01 T10151095  RH  055%=      5-min Rain = 0
KLO1 131020Z 00000KT M02/M10 A3026 RMK A01 T10181097  RH  054%=      5-min Rain = 0
KLO1 131021Z 21001KT M02/M10 A3026 RMK A01 T10211103  RH  054%=      5-min Rain = 0
KLO1 131022Z 21002KT M02/M11 A3026 RMK A01 T10241107  RH  053%=      5-min Rain = 0
KLO1 131023Z 22002KT M03/M11 A3026 RMK A01 T10271108  RH  054%=      5-min Rain = 0
KLO1 131024Z 22002KT M03/M11 A3026 RMK A01 T10281107  RH  055%=      5-min Rain = 0
KLO1 131025Z 23002KT M03/M11 A3026 RMK A01 T10281105  RH  056%=      5-min Rain = 0
KLO1 131026Z 23002KT M03/M11 A3026 RMK A01 T10291105  RH  056%=      5-min Rain = 0
KLO1 131027Z 23002KT M03/M11 A3026 RMK A01 T10301106  RH  056%=      5-min Rain = 0
KLO1 131028Z 23002KT M03/M11 A3026 RMK A01 T10311107  RH  056%=      5-min Rain = 0
KLO1 131029Z 23002KT M03/M11 A3026 RMK A01 T10311107  RH  056%=      5-min Rain = 0
KLO1 131030Z 23002KT M03/M11 A3026 RMK A01 T10311106  RH  056%=      5-min Rain = 0
KLO1 131031Z 23002KT M03/M11 A3026 RMK A01 T10311105  RH  057%=      5-min Rain = 0
KLO1 131032Z 24004KT M03/M11 A3026 RMK A01 T10311105  RH  057%=      5-min Rain = 0
KLO1 131033Z 25003KT M03/M11 A3026 RMK A01 T10321105  RH  057%=      5-min Rain = 0
KLO1 131034Z 26003KT M03/M10 A3026 RMK A01 T10321104  RH  058%=      5-min Rain = 0
KLO1 131035Z 25003KT M03/M10 A3026 RMK A01 T10321103  RH  058%=      5-min Rain = 0
KLO1 131036Z 25003KT M03/M10 A3026 RMK A01 T10321103  RH  058%=      5-min Rain = 0
KLO1 131037Z 25003KT M03/M10 A3026 RMK A01 T10321103  RH  058%=      5-min Rain = 0
KLO1 131038Z 25003KT M03/M10 A3026 RMK A01 T10321103  RH  058%=      5-min Rain = 0
KLO1 131039Z 25003KT M03/M10 A3026 RMK A01 T10321102  RH  058%=      5-min Rain = 0
KLO1 131040Z 25003KT M03/M10 A3026 RMK A01 T10311101  RH  058%=      5-min Rain = 0
KLO1 131041Z 26003KT M03/M10 A3026 RMK A01 T10311101  RH  058%=      5-min Rain = 0
KLO1 131042Z 26003KT M03/M10 A3026 RMK A01 T10301101  RH  058%=      5-min Rain = 0
KLO1 131043Z 26003KT M03/M10 A3026 RMK A01 T10301101  RH  058%=      5-min Rain = 0
KLO1 131044Z 26003KT M03/M10 A3026 RMK A01 T10301101  RH  058%=      5-min Rain = 0
KLO1 131045Z 26003KT M03/M10 A3026 RMK A01 T10301101  RH  058%=      5-min Rain = 0
KLO1 131046Z 27003KT M03/M10 A3026 RMK A01 T10301102  RH  058%=      5-min Rain = 0
KLO1 131047Z 27003KT M03/M10 A3027 RMK A01 T10301103  RH  057%=      5-min Rain = 0
KLO1 131048Z 27003KT M03/M10 A3027 RMK A01 T10301102  RH  057%=      5-min Rain = 0
KLO1 131049Z 27004KT M03/M10 A3027 RMK A01 T10301101  RH  058%=      5-min Rain = 0
KLO1 131050Z 27004KT M03/M10 A3027 RMK A01 T10291099  RH  058%=      5-min Rain = 0
KLO1 131051Z 27004KT M03/M10 A3027 RMK A01 T10271097  RH  059%=      5-min Rain = 0
KLO1 131052Z 27004KT M03/M10 A3027 RMK A01 T10261096  RH  059%=      5-min Rain = 0
KLO1 131053Z 28004KT M03/M10 A3027 RMK A01 T10261095  RH  059%=      5-min Rain = 0
KLO1 131054Z 28004KT M02/M09 A3027 RMK A01 T10241094  RH  059%=      5-min Rain = 0
KLO1 131055Z 28004KT M02/M09 A3027 RMK A01 T10231092  RH  059%=      5-min Rain = 0
KLO1 131056Z 28004KT M02/M09 A3027 RMK A01 T10211091  RH  059%=      5-min Rain = 0
KLO1 131057Z 28004KT M02/M09 A3027 RMK A01 T10201090  RH  058%=      5-min Rain = 0
KLO1 131058Z 28004KT M02/M09 A3027 RMK A01 T10181089  RH  058%=      5-min Rain = 0
KLO1 131059Z 28004KT M02/M09 A3027 RMK A01 T10171088  RH  058%=      5-min Rain = 0
KLO1 131100Z 29004KT M02/M09 A3027 RMK A01 T10151087  RH  058%=      5-min Rain = 0
KLO1 131101Z 29004KT M01/M09 A3028 RMK A01 T10131086  RH  058%=      5-min Rain = 0
KLO1 131102Z 30003KT M01/M08 A3028 RMK A01 T10111084  RH  058%=      5-min Rain = 0
KLO1 131103Z 30004KT M01/M08 A3028 RMK A01 T10081081  RH  058%=      5-min Rain = 0
KLO1 131104Z 31004KT M01/M08 A3027 RMK A01 T10061082  RH  057%=      5-min Rain = 0
KLO1 131105Z 32004KT M01/M08 A3027 RMK A01 T10061083  RH  056%=      5-min Rain = 0
KLO1 131106Z 32004KT M01/M09 A3027 RMK A01 T10061086  RH  055%=      5-min Rain = 0
KLO1 131107Z 32004KT M01/M09 A3027 RMK A01 T10071088  RH  054%=      5-min Rain = 0
KLO1 131108Z 32004KT M01/M09 A3028 RMK A01 T10081088  RH  054%=      5-min Rain = 0
KLO1 131109Z 32004KT M01/M09 A3028 RMK A01 T10081089  RH  054%=      5-min Rain = 0
KLO1 131110Z 31004KT M01/M09 A3028 RMK A01 T10081088  RH  054%=      5-min Rain = 0
KLO1 131111Z 31004KT M01/M09 A3028 RMK A01 T10081088  RH  055%=      5-min Rain = 0
KLO1 131112Z 31003KT M01/M09 A3028 RMK A01 T10071087  RH  055%=      5-min Rain = 0
KLO1 131113Z 30003KT M01/M09 A3028 RMK A01 T10071086  RH  055%=      5-min Rain = 0
KLO1 131114Z 30002KT M01/M09 A3028 RMK A01 T10061085  RH  055%=      5-min Rain = 0
KLO1 131115Z 30002KT M00/M08 A3027 RMK A01 T10041084  RH  055%=      5-min Rain = 0
KLO1 131116Z 29002KT M00/M08 A3027 RMK A01 T10031083  RH  055%=      5-min Rain = 0
KLO1 131117Z 29002KT M00/M08 A3028 RMK A01 T10021082  RH  055%=      5-min Rain = 0
KLO1 131118Z 29003KT M00/M08 A3028 RMK A01 T10011082  RH  055%=      5-min Rain = 0
KLO1 131119Z 30002KT 00/08 A3028 RMK A01 T00000-81  RH  055%=      5-min Rain = 0
KLO1 131120Z 31002KT 00/M08 A3027 RMK A01 T00011080  RH  054%=      5-min Rain = 0
KLO1 131121Z 33001KT 00/M08 A3027 RMK A01 T00021080  RH  054%=      5-min Rain = 0
KLO1 131122Z 33002KT 00/M08 A3027 RMK A01 T00021080  RH  054%=      5-min Rain = 0
KLO1 131123Z 33003KT 00/M08 A3027 RMK A01 T00031081  RH  053%=      5-min Rain = 0
KLO1 131124Z 33003KT 00/M08 A3028 RMK A01 T00031082  RH  053%=      5-min Rain = 0
KLO1 131125Z 34003KT 00/M08 A3028 RMK A01 T00021082  RH  053%=      5-min Rain = 0
KLO1 131126Z 35002KT 00/M08 A3028 RMK A01 T00021082  RH  053%=      5-min Rain = 0
KLO1 131127Z 00002KT 00/M08 A3028 RMK A01 T00021082  RH  053%=      5-min Rain = 0
KLO1 131128Z 01001KT 00/M08 A3028 RMK A01 T00021083  RH  053%=      5-min Rain = 0
KLO1 131129Z 01002KT 00/M08 A3028 RMK A01 T00021084  RH  052%=      5-min Rain = 0
KLO1 131130Z 00002KT 00/M09 A3028 RMK A01 T00011085  RH  052%=      5-min Rain = 0
KLO1 131131Z 01001KT 00/M09 A3028 RMK A01 T00011086  RH  052%=      5-min Rain = 0
KLO1 131132Z 00001KT 00/M09 A3028 RMK A01 T00011086  RH  052%=      5-min Rain = 0
KLO1 131133Z 00000KT 00/09 A3028 RMK A01 T00000-86  RH  052%=      5-min Rain = 0
KLO1 131134Z 00000KT 00/09 A3028 RMK A01 T00000-86  RH  052%=      5-min Rain = 0
KLO1 131135Z 00000KT 00/09 A3028 RMK A01 T00000-85  RH  052%=      5-min Rain = 0
KLO1 131136Z 00000KT 00/M09 A3028 RMK A01 T00011085  RH  053%=      5-min Rain = 0
KLO1 131137Z 00000KT 00/M09 A3028 RMK A01 T00011085  RH  052%=      5-min Rain = 0
KLO1 131138Z 00000KT 00/M09 A3028 RMK A01 T00011085  RH  052%=      5-min Rain = 0
KLO1 131139Z 00000KT 00/M08 A3028 RMK A01 T00021084  RH  052%=      5-min Rain = 0
KLO1 131140Z 00001KT 00/M08 A3028 RMK A01 T00021084  RH  052%=      5-min Rain = 0
KLO1 131141Z 00000KT 00/M08 A3028 RMK A01 T00031084  RH  052%=      5-min Rain = 0
KLO1 131142Z 00000KT 00/M08 A3028 RMK A01 T00031084  RH  052%=      5-min Rain = 0
KLO1 131143Z 00000KT 00/M08 A3028 RMK A01 T00041083  RH  052%=      5-min Rain = 0
KLO1 131144Z 00000KT 00/M08 A3028 RMK A01 T00041082  RH  052%=      5-min Rain = 0
KLO1 131145Z 00000KT 01/M08 A3028 RMK A01 T00051082  RH  052%=      5-min Rain = 0
KLO1 131146Z 33000KT 01/M08 A3028 RMK A01 T00061081  RH  052%=      5-min Rain = 0
KLO1 131147Z 33001KT 01/M08 A3028 RMK A01 T00071080  RH  052%=      5-min Rain = 0
KLO1 131148Z 33002KT 01/M08 A3028 RMK A01 T00071081  RH  052%=      5-min Rain = 0
KLO1 131149Z 33002KT 01/M08 A3028 RMK A01 T00071081  RH  052%=      5-min Rain = 0
KLO1 131150Z 32003KT 01/M08 A3028 RMK A01 T00071081  RH  052%=      5-min Rain = 0
KLO1 131151Z 31002KT 01/M08 A3028 RMK A01 T00071081  RH  052%=      5-min Rain = 0
KLO1 131152Z 31001KT 01/M08 A3028 RMK A01 T00071083  RH  051%=      5-min Rain = 0
KLO1 131153Z 30001KT 01/M08 A3028 RMK A01 T00071083  RH  051%=      5-min Rain = 0
KLO1 131154Z 30001KT 01/M08 A3028 RMK A01 T00071082  RH  051%=      5-min Rain = 0
KLO1 131155Z 30000KT 01/M08 A3028 RMK A01 T00071082  RH  051%=      5-min Rain = 0
KLO1 131156Z 00000KT 01/M08 A3028 RMK A01 T00061082  RH  052%=      5-min Rain = 0
KLO1 131157Z 00000KT 01/M08 A3028 RMK A01 T00071081  RH  052%=      5-min Rain = 0
KLO1 131158Z 00000KT 01/M08 A3028 RMK A01 T00081079  RH  052%=      5-min Rain = 0
KLO1 131159Z 00000KT 01/M08 A3028 RMK A01 T00081078  RH  052%=      5-min Rain = 0
KLO1 131200Z 30000KT 01/M08 A3028 RMK A01 T00091078  RH  052%=      5-min Rain = 0
KLO1 131201Z 30001KT 01/M08 A3028 RMK A01 T00101079  RH  052%=      5-min Rain = 0
KLO1 131202Z 30001KT 01/M08 A3028 RMK A01 T00101079  RH  051%=      5-min Rain = 0
KLO1 131203Z 30002KT 01/M08 A3028 RMK A01 T00111080  RH  051%=      5-min Rain = 0
KLO1 131204Z 30002KT 01/M08 A3028 RMK A01 T00111080  RH  051%=      5-min Rain = 0
KLO1 131205Z 31002KT 01/M08 A3028 RMK A01 T00111081  RH  050%=      5-min Rain = 0
KLO1 131206Z 32002KT 01/M08 A3028 RMK A01 T00121080  RH  050%=      5-min Rain = 0
KLO1 131207Z 33001KT 01/M08 A3028 RMK A01 T00121080  RH  050%=      5-min Rain = 0
KLO1 131208Z 34001KT 01/M08 A3028 RMK A01 T00121080  RH  050%=      5-min Rain = 0
KLO1 131209Z 35002KT 01/M08 A3028 RMK A01 T00121080  RH  050%=      5-min Rain = 0
KLO1 131210Z 03002KT 01/M08 A3028 RMK A01 T00121080  RH  050%=      5-min Rain = 0
KLO1 131211Z 05003KT 01/M08 A3028 RMK A01 T00131079  RH  051%=      5-min Rain = 0
KLO1 131212Z 05004KT 01/M08 A3028 RMK A01 T00131079  RH  050%=      5-min Rain = 0
KLO1 131213Z 05005KT 01/M08 A3028 RMK A01 T00141078  RH  051%=      5-min Rain = 0
KLO1 131214Z 05005KT 01/M08 A3028 RMK A01 T00131076  RH  052%=      5-min Rain = 0
KLO1 131215Z 06005KT 01/M07 A3028 RMK A01 T00121074  RH  053%=      5-min Rain = 0
KLO1 131216Z 06005KT 01/M07 A3028 RMK A01 T00121073  RH  053%=      5-min Rain = 0
KLO1 131217Z 07004KT 01/M07 A3028 RMK A01 T00131072  RH  053%=      5-min Rain = 0
KLO1 131218Z 07004KT 01/M07 A3028 RMK A01 T00131072  RH  053%=      5-min Rain = 0
KLO1 131219Z 07005KT 01/M07 A3028 RMK A01 T00141071  RH  053%=      5-min Rain = 0
KLO1 131220Z 07004KT 01/M07 A3028 RMK A01 T00141069  RH  054%=      5-min Rain = 0
KLO1 131221Z 07003KT 01/M07 A3028 RMK A01 T00141069  RH  054%=      5-min Rain = 0
KLO1 131222Z 08003KT 02/M07 A3027 RMK A01 T00151067  RH  054%=      5-min Rain = 0
KLO1 131223Z 07002KT 02/M07 A3027 RMK A01 T00161066  RH  055%=      5-min Rain = 0
KLO1 131224Z 07002KT 02/M07 A3027 RMK A01 T00161065  RH  055%=      5-min Rain = 0
KLO1 131225Z 07002KT 02/M07 A3027 RMK A01 T00171065  RH  055%=      5-min Rain = 0
KLO1 131226Z 07003KT 02/M07 A3028 RMK A01 T00171065  RH  054%=      5-min Rain = 0
KLO1 131227Z 08003KT 02/M07 A3028 RMK A01 T00181065  RH  054%=      5-min Rain = 0
KLO1 131228Z 07004KT 02/M06 A3028 RMK A01 T00181064  RH  054%=      5-min Rain = 0
KLO1 131229Z 06003KT 02/M07 A3028 RMK A01 T00191065  RH  054%=      5-min Rain = 0
KLO1 131230Z 05002KT 02/M07 A3028 RMK A01 T00191065  RH  054%=      5-min Rain = 0
KLO1 131231Z 05003KT 02/M07 A3028 RMK A01 T00191065  RH  054%=      5-min Rain = 0
KLO1 131232Z 04004KT 02/M07 A3028 RMK A01 T00191065  RH  054%=      5-min Rain = 0
KLO1 131233Z 04004KT 02/M07 A3028 RMK A01 T00191065  RH  054%=      5-min Rain = 0
KLO1 131234Z 05003KT 02/M07 A3028 RMK A01 T00191065  RH  054%=      5-min Rain = 0
KLO1 131235Z 06003KT 02/M07 A3028 RMK A01 T00191066  RH  053%=      5-min Rain = 0
KLO1 131236Z 07004KT 02/M07 A3028 RMK A01 T00191066  RH  053%=      5-min Rain = 0
KLO1 131237Z 07004KT 02/M07 A3028 RMK A01 T00201066  RH  053%=      5-min Rain = 0
KLO1 131238Z 07004KT 02/M07 A3028 RMK A01 T00201066  RH  053%=      5-min Rain = 0
KLO1 131239Z 08004KT 02/M07 A3028 RMK A01 T00201066  RH  053%=      5-min Rain = 0
KLO1 131240Z 07003KT 02/M07 A3028 RMK A01 T00201066  RH  053%=      5-min Rain = 0
KLO1 131241Z 08003KT 02/M07 A3028 RMK A01 T00201066  RH  053%=      5-min Rain = 0
KLO1 131242Z 07004KT 02/M07 A3028 RMK A01 T00201066  RH  053%=      5-min Rain = 0
KLO1 131243Z 08004KT 02/M07 A3028 RMK A01 T00201066  RH  053%=      5-min Rain = 0
KLO1 131244Z 08003KT 02/M07 A3029 RMK A01 T00211065  RH  053%=      5-min Rain = 0
KLO1 131245Z 08003KT 02/M07 A3029 RMK A01 T00211065  RH  053%=      5-min Rain = 0
KLO1 131246Z 08002KT 02/M06 A3029 RMK A01 T00211064  RH  053%=      5-min Rain = 0
KLO1 131247Z 08003KT 02/M06 A3029 RMK A01 T00221064  RH  053%=      5-min Rain = 0
KLO1 131248Z 08003KT 02/M06 A3029 RMK A01 T00231063  RH  053%=      5-min Rain = 0
KLO1 131249Z 08003KT 02/M06 A3029 RMK A01 T00231063  RH  053%=      5-min Rain = 0
KLO1 131250Z 06003KT 02/M06 A3029 RMK A01 T00231063  RH  053%=      5-min Rain = 0
KLO1 131251Z 05002KT 02/M06 A3029 RMK A01 T00231063  RH  053%=      5-min Rain = 0
KLO1 131252Z 05003KT 02/M06 A3029 RMK A01 T00231063  RH  053%=      5-min Rain = 0
KLO1 131253Z 05002KT 02/M06 A3029 RMK A01 T00241062  RH  053%=      5-min Rain = 0
KLO1 131254Z 05002KT 02/M06 A3029 RMK A01 T00241062  RH  053%=      5-min Rain = 0
KLO1 131255Z 05002KT 02/M06 A3029 RMK A01 T00241062  RH  053%=      5-min Rain = 0
KLO1 131256Z 05002KT 02/M06 A3029 RMK A01 T00241062  RH  053%=      5-min Rain = 0
KLO1 131257Z 05002KT 02/M06 A3029 RMK A01 T00241062  RH  053%=      5-min Rain = 0
KLO1 131258Z 05001KT 02/M06 A3029 RMK A01 T00241062  RH  053%=      5-min Rain = 0
KLO1 131259Z 05001KT 02/M06 A303 RMK A01 T00241062  RH  053%=      5-min Rain = 0
KLO1 131300Z 06001KT 02/M06 A303 RMK A01 T00241062  RH  053%=      5-min Rain = 0
KLO1 131301Z 06001KT 02/M06 A303 RMK A01 T00241062  RH  053%=      5-min Rain = 0
KLO1 131302Z 04001KT 02/M06 A303 RMK A01 T00241062  RH  053%=      5-min Rain = 0
KLO1 131303Z 02001KT 02/M06 A303 RMK A01 T00241061  RH  053%=      5-min Rain = 0
KLO1 131304Z 02001KT 02/M06 A303 RMK A01 T00241061  RH  053%=      5-min Rain = 0
KLO1 131305Z 03002KT 03/M06 A303 RMK A01 T00251061  RH  053%=      5-min Rain = 0
KLO1 131306Z 03002KT 03/M06 A303 RMK A01 T00251061  RH  053%=      5-min Rain = 0
KLO1 131307Z 04002KT 03/M06 A303 RMK A01 T00251061  RH  053%=      5-min Rain = 0
KLO1 131308Z 04002KT 03/M06 A303 RMK A01 T00251061  RH  053%=      5-min Rain = 0
KLO1 131309Z 04002KT 03/M06 A303 RMK A01 T00251061  RH  053%=      5-min Rain = 0
KLO1 131310Z 04002KT 03/M06 A303 RMK A01 T00251061  RH  053%=      5-min Rain = 0
KLO1 131311Z 04001KT 03/M06 A303 RMK A01 T00251061  RH  053%=      5-min Rain = 0
KLO1 131312Z 04001KT 03/M06 A303 RMK A01 T00251061  RH  053%=      5-min Rain = 0
KLO1 131313Z 04001KT 03/M06 A303 RMK A01 T00251061  RH  053%=      5-min Rain = 0
KLO1 131314Z 04000KT 03/M06 A303 RMK A01 T00251060  RH  053%=      5-min Rain = 0
KLO1 131315Z 00000KT 03/M06 A303 RMK A01 T00251060  RH  053%=      5-min Rain = 0
KLO1 131316Z 00000KT 03/M06 A303 RMK A01 T00251060  RH  053%=      5-min Rain = 0
KLO1 131317Z 00000KT 03/M06 A303 RMK A01 T00261060  RH  053%=      5-min Rain = 0
KLO1 131318Z 00000KT 03/M06 A303 RMK A01 T00261060  RH  053%=      5-min Rain = 0
KLO1 131319Z 00000KT 03/M06 A303 RMK A01 T00261060  RH  053%=      5-min Rain = 0
KLO1 131320Z 00000KT 03/M06 A303 RMK A01 T00251060  RH  053%=      5-min Rain = 0
KLO1 131321Z 08000KT 03/M06 A303 RMK A01 T00261059  RH  053%=      5-min Rain = 0
KLO1 131322Z 08002KT 03/M06 A303 RMK A01 T00261059  RH  054%=      5-min Rain = 0
KLO1 131323Z 08003KT 03/M06 A303 RMK A01 T00261058  RH  054%=      5-min Rain = 0
KLO1 131324Z 08002KT 03/M06 A303 RMK A01 T00261058  RH  054%=      5-min Rain = 0
KLO1 131325Z 09002KT 03/M06 A303 RMK A01 T00271058  RH  054%=      5-min Rain = 0
KLO1 131326Z 08003KT 03/M06 A303 RMK A01 T00271058  RH  053%=      5-min Rain = 0
KLO1 131327Z 09003KT 03/M06 A303 RMK A01 T00281058  RH  053%=      5-min Rain = 0
KLO1 131328Z 08003KT 03/M06 A303 RMK A01 T00281058  RH  053%=      5-min Rain = 0
KLO1 131329Z 08003KT 03/M06 A303 RMK A01 T00291058  RH  053%=      5-min Rain = 0
KLO1 131330Z 08002KT 03/M06 A303 RMK A01 T00291058  RH  053%=      5-min Rain = 0
KLO1 131331Z 10001KT 03/M06 A303 RMK A01 T00291057  RH  053%=      5-min Rain = 0
KLO1 131332Z 09002KT 03/M06 A303 RMK A01 T00291057  RH  053%=      5-min Rain = 0
KLO1 131333Z 09002KT 03/M06 A303 RMK A01 T00291057  RH  053%=      5-min Rain = 0
KLO1 131334Z 08002KT 03/M06 A303 RMK A01 T00301057  RH  053%=      5-min Rain = 0
KLO1 131335Z 09002KT 03/M06 A303 RMK A01 T00301057  RH  053%=      5-min Rain = 0
KLO1 131336Z 09002KT 03/M06 A303 RMK A01 T00301057  RH  053%=      5-min Rain = 0
KLO1 131337Z 08002KT 03/M06 A303 RMK A01 T00301057  RH  053%=      5-min Rain = 0
KLO1 131338Z 08002KT 03/M06 A303 RMK A01 T00301056  RH  053%=      5-min Rain = 0
KLO1 131339Z 09002KT 03/M06 A303 RMK A01 T00311056  RH  053%=      5-min Rain = 0
KLO1 131340Z 09002KT 03/M06 A303 RMK A01 T00311055  RH  053%=      5-min Rain = 0
KLO1 131341Z 09003KT 03/M06 A303 RMK A01 T00311055  RH  053%=      5-min Rain = 0
KLO1 131342Z 09003KT 03/M06 A303 RMK A01 T00311055  RH  053%=      5-min Rain = 0
KLO1 131343Z 09004KT 03/M06 A303 RMK A01 T00321055  RH  053%=      5-min Rain = 0
KLO1 131344Z 09005KT 03/M06 A303 RMK A01 T00321055  RH  053%=      5-min Rain = 0
KLO1 131345Z 10004KT 03/M06 A3029 RMK A01 T00321055  RH  053%=      5-min Rain = 0
KLO1 131346Z 09004KT 03/M05 A3029 RMK A01 T00321054  RH  053%=      5-min Rain = 0
KLO1 131347Z 09004KT 03/M05 A3029 RMK A01 T00331054  RH  053%=      5-min Rain = 0
KLO1 131348Z 10003KT 03/M05 A3029 RMK A01 T00331054  RH  053%=      5-min Rain = 0
KLO1 131349Z 11003KT 03/M05 A3029 RMK A01 T00341053  RH  053%=      5-min Rain = 0
KLO1 131350Z 10004KT 03/M05 A3029 RMK A01 T00341053  RH  053%=      5-min Rain = 0
KLO1 131351Z 10004KT 03/M05 A3029 RMK A01 T00341052  RH  053%=      5-min Rain = 0
KLO1 131352Z 11004KT 03/M05 A3029 RMK A01 T00341052  RH  053%=      5-min Rain = 0
KLO1 131353Z 10004KT 04/M05 A3029 RMK A01 T00351051  RH  053%=      5-min Rain = 0
KLO1 131354Z 10005KT 04/M05 A3029 RMK A01 T00351051  RH  053%=      5-min Rain = 0
KLO1 131355Z 10006KT 04/M05 A3029 RMK A01 T00361050  RH  053%=      5-min Rain = 0
KLO1 131356Z 10006KT 04/M05 A3029 RMK A01 T00361049  RH  054%=      5-min Rain = 0
KLO1 131357Z 10006KT 04/M05 A3029 RMK A01 T00371048  RH  054%=      5-min Rain = 0
KLO1 131358Z 10006KT 04/M05 A303 RMK A01 T00371048  RH  054%=      5-min Rain = 0
KLO1 131359Z 10005KT 04/M05 A303 RMK A01 T00371048  RH  054%=      5-min Rain = 0
KLO1 131400Z 11005KT 04/M05 A303 RMK A01 T00381047  RH  054%=      5-min Rain = 0
KLO1 131401Z 11004KT 04/M05 A303 RMK A01 T00381047  RH  054%=      5-min Rain = 0
KLO1 131402Z 12004KT 04/M05 A303 RMK A01 T00381046  RH  054%=      5-min Rain = 0
KLO1 131403Z 12004KT 04/M05 A303 RMK A01 T00391045  RH  054%=      5-min Rain = 0
KLO1 131404Z 12004KT 04/M05 A303 RMK A01 T00391045  RH  054%=      5-min Rain = 0
KLO1 131405Z 12004KT 04/M04 A303 RMK A01 T00401044  RH  054%=      5-min Rain = 0
KLO1 131406Z 13004KT 04/M04 A303 RMK A01 T00401044  RH  054%=      5-min Rain = 0
KLO1 131407Z 13004KT 04/M04 A303 RMK A01 T00411044  RH  054%=      5-min Rain = 0
KLO1 131408Z 14003KT 04/M04 A303 RMK A01 T00411044  RH  054%=      5-min Rain = 0
KLO1 131409Z 14004KT 04/M04 A303 RMK A01 T00421044  RH  054%=      5-min Rain = 0
KLO1 131410Z 13003KT 04/M04 A303 RMK A01 T00421043  RH  054%=      5-min Rain = 0
KLO1 131411Z 13004KT 04/M04 A303 RMK A01 T00421044  RH  054%=      5-min Rain = 0
KLO1 131412Z 14004KT 04/M04 A3031 RMK A01 T00421043  RH  054%=      5-min Rain = 0
KLO1 131413Z 15003KT 04/M04 A3031 RMK A01 T00431042  RH  054%=      5-min Rain = 0
KLO1 131414Z 15004KT 04/M04 A3031 RMK A01 T00431041  RH  054%=      5-min Rain = 0
KLO1 131415Z 15004KT 04/M04 A3031 RMK A01 T00441040  RH  054%=      5-min Rain = 0
KLO1 131416Z 14004KT 04/M04 A303 RMK A01 T00441039  RH  055%=      5-min Rain = 0
KLO1 131417Z 14003KT 04/M04 A3031 RMK A01 T00441039  RH  055%=      5-min Rain = 0
KLO1 131418Z 15004KT 04/M04 A3031 RMK A01 T00441038  RH  055%=      5-min Rain = 0
KLO1 131419Z 14005KT 04/M04 A3031 RMK A01 T00441037  RH  056%=      5-min Rain = 0
KLO1 131420Z 15004KT 04/M04 A3031 RMK A01 T00441036  RH  056%=      5-min Rain = 0
KLO1 131421Z 15005KT 05/M04 A3031 RMK A01 T00451035  RH  056%=      5-min Rain = 0
KLO1 131422Z 14006KT 05/M04 A3031 RMK A01 T00451035  RH  056%=      5-min Rain = 0
KLO1 131423Z 14005KT 05/M04 A3031 RMK A01 T00451035  RH  056%=      5-min Rain = 0
KLO1 131424Z 13005KT 05/M04 A3031 RMK A01 T00461035  RH  056%=      5-min Rain = 0
KLO1 131425Z 13005KT 05/M03 A3031 RMK A01 T00461034  RH  056%=      5-min Rain = 0
KLO1 131426Z 14005KT 05/M03 A3031 RMK A01 T00471032  RH  057%=      5-min Rain = 0
KLO1 131427Z 14004KT 05/M03 A3031 RMK A01 T00471031  RH  057%=      5-min Rain = 0
KLO1 131428Z 14005KT 05/M03 A3031 RMK A01 T00471031  RH  057%=      5-min Rain = 0
KLO1 131429Z 13005KT 05/M03 A3031 RMK A01 T00481030  RH  057%=      5-min Rain = 0
KLO1 131430Z 12005KT 05/M03 A3031 RMK A01 T00481030  RH  057%=      5-min Rain = 0
KLO1 131431Z 11005KT 05/M03 A3031 RMK A01 T00481029  RH  057%=      5-min Rain = 0
KLO1 131432Z 12006KT 05/M03 A3031 RMK A01 T00491028  RH  057%=      5-min Rain = 0
KLO1 131433Z 12006KT 05/M03 A3031 RMK A01 T00501027  RH  058%=      5-min Rain = 0
KLO1 131434Z 12005KT 05/M03 A3031 RMK A01 T00511026  RH  058%=      5-min Rain = 0
KLO1 131435Z 11006KT 05/M03 A3031 RMK A01 T00511026  RH  057%=      5-min Rain = 0
KLO1 131436Z 12006KT 05/M03 A3031 RMK A01 T00511026  RH  057%=      5-min Rain = 0
KLO1 131437Z 12004KT 05/M03 A3031 RMK A01 T00511026  RH  057%=      5-min Rain = 0
KLO1 131438Z 12006KT 05/M03 A3031 RMK A01 T00521026  RH  057%=      5-min Rain = 0
KLO1 131439Z 12006KT 05/M03 A3031 RMK A01 T00531025  RH  057%=      5-min Rain = 0
KLO1 131440Z 13006KT 05/M02 A3031 RMK A01 T00541024  RH  057%=      5-min Rain = 0
KLO1 131441Z 13006KT 06/M02 A3031 RMK A01 T00551022  RH  058%=      5-min Rain = 0
KLO1 131442Z 13005KT 06/M02 A3031 RMK A01 T00551021  RH  058%=      5-min Rain = 0
KLO1 131443Z 12005KT 06/M02 A3031 RMK A01 T00561019  RH  058%=      5-min Rain = 0
KLO1 131444Z 13005KT 06/M02 A3031 RMK A01 T00561018  RH  059%=      5-min Rain = 0
KLO1 131445Z 14005KT 06/M02 A3031 RMK A01 T00571017  RH  059%=      5-min Rain = 0
KLO1 131446Z 14006KT 06/M02 A3031 RMK A01 T00571017  RH  059%=      5-min Rain = 0
KLO1 131447Z 14004KT 06/M02 A3031 RMK A01 T00581016  RH  059%=      5-min Rain = 0
KLO1 131448Z 14004KT 06/M02 A3032 RMK A01 T00591015  RH  059%=      5-min Rain = 0
KLO1 131449Z 13005KT 06/M02 A3032 RMK A01 T00601015  RH  059%=      5-min Rain = 0
KLO1 131450Z 14005KT 06/M01 A3032 RMK A01 T00601014  RH  059%=      5-min Rain = 0
KLO1 131451Z 15004KT 06/M01 A3032 RMK A01 T00601013  RH  059%=      5-min Rain = 0
KLO1 131452Z 15004KT 06/M01 A3032 RMK A01 T00601013  RH  059%=      5-min Rain = 0
KLO1 131453Z 15003KT 06/M01 A3032 RMK A01 T00611011  RH  060%=      5-min Rain = 0
KLO1 131454Z 14004KT 06/M01 A3032 RMK A01 T00611010  RH  060%=      5-min Rain = 0
KLO1 131455Z 14006KT 06/M01 A3032 RMK A01 T00631007  RH  061%=      5-min Rain = 0
KLO1 131456Z 15007KT 06/M00 A3032 RMK A01 T00641002  RH  063%=      5-min Rain = 0
KLO1 131457Z 15008KT 07/00 A3032 RMK A01 T00650003  RH  065%=      5-min Rain = 0
KLO1 131458Z 15008KT 07/01 A3032 RMK A01 T00650006  RH  066%=      5-min Rain = 0
KLO1 131459Z 16007KT 07/01 A3032 RMK A01 T00670009  RH  067%=      5-min Rain = 0
KLO1 131500Z 15011KT 07/01 A3032 RMK A01 T00680014  RH  068%=      5-min Rain = 0
KLO1 131501Z 15010KT 07/02 A3032 RMK A01 T00680017  RH  070%=      5-min Rain = 0
KLO1 131502Z 14009KT 07/02 A3032 RMK A01 T00680018  RH  070%=      5-min Rain = 0
KLO1 131503Z 15010KT 07/02 A3032 RMK A01 T00690020  RH  071%=      5-min Rain = 0
KLO1 131504Z 16009KT 07/02 A3032 RMK A01 T00700021  RH  071%=      5-min Rain = 0
KLO1 131505Z 15010KT 07/02 A3032 RMK A01 T00700021  RH  071%=      5-min Rain = 0
KLO1 131506Z 15009KT 07/02 A3032 RMK A01 T00700020  RH  070%=      5-min Rain = 0
KLO1 131507Z 14010KT 07/02 A3032 RMK A01 T00700021  RH  071%=      5-min Rain = 0
KLO1 131508Z 14010KT 07/02 A3032 RMK A01 T00710021  RH  071%=      5-min Rain = 0
KLO1 131509Z 14012KT 07/02 A3032 RMK A01 T00710021  RH  070%=      5-min Rain = 0
KLO1 131510Z 14010KT 07/02 A3032 RMK A01 T00710020  RH  070%=      5-min Rain = 0
KLO1 131511Z 14011KT 07/02 A3032 RMK A01 T00700020  RH  070%=      5-min Rain = 0
KLO1 131512Z 14010KT 07/02 A3033 RMK A01 T00700020  RH  071%=      5-min Rain = 0
KLO1 131513Z 15009KT 07/02 A3033 RMK A01 T00700020  RH  071%=      5-min Rain = 0
KLO1 131514Z 15009KT 07/02 A3033 RMK A01 T00700021  RH  071%=      5-min Rain = 0
KLO1 131515Z 15008KT 07/02 A3033 RMK A01 T00700020  RH  070%=      5-min Rain = 0
KLO1 131516Z 15009KT 07/02 A3033 RMK A01 T00700021  RH  071%=      5-min Rain = 0
KLO1 131517Z 15011KT 07/02 A3033 RMK A01 T00710022  RH  071%=      5-min Rain = 0
KLO1 131518Z 15010KT 07/02 A3033 RMK A01 T00720023  RH  071%=      5-min Rain = 0
KLO1 131519Z 15009KT 07/02 A3033 RMK A01 T00720023  RH  071%=      5-min Rain = 0
KLO1 131520Z 14008KT 07/02 A3033 RMK A01 T00720023  RH  071%=      5-min Rain = 0
KLO1 131521Z 15008KT 07/02 A3033 RMK A01 T00720024  RH  071%=      5-min Rain = 0
KLO1 131522Z 14010KT 07/02 A3033 RMK A01 T00730024  RH  071%=      5-min Rain = 0
KLO1 131523Z 14008KT 07/02 A3033 RMK A01 T00730024  RH  071%=      5-min Rain = 0
KLO1 131524Z 14009KT 07/02 A3033 RMK A01 T00730024  RH  071%=      5-min Rain = 0
KLO1 131525Z 13010KT 07/02 A3033 RMK A01 T00730024  RH  071%=      5-min Rain = 0
KLO1 131526Z 14009KT 07/02 A3033 RMK A01 T00730024  RH  071%=      5-min Rain = 0
KLO1 131527Z 15009KT 07/02 A3033 RMK A01 T00730024  RH  071%=      5-min Rain = 0
KLO1 131528Z 14011KT 07/02 A3033 RMK A01 T00730024  RH  071%=      5-min Rain = 0
KLO1 131529Z 14010KT 07/02 A3033 RMK A01 T00740024  RH  071%=      5-min Rain = 0
KLO1 131530Z 16009KT 07/02 A3033 RMK A01 T00740024  RH  071%=      5-min Rain = 0
KLO1 131531Z 16008KT 07/02 A3033 RMK A01 T00740024  RH  070%=      5-min Rain = 0
KLO1 131532Z 14008KT 07/02 A3033 RMK A01 T00740024  RH  071%=      5-min Rain = 0
KLO1 131533Z 14009KT 07/03 A3033 RMK A01 T00740025  RH  071%=      5-min Rain = 0
KLO1 131534Z 15008KT 08/03 A3033 RMK A01 T00750025  RH  071%=      5-min Rain = 0
KLO1 131535Z 15008KT 08/03 A3033 RMK A01 T00760026  RH  071%=      5-min Rain = 0
KLO1 131536Z 16009KT 08/03 A3033 RMK A01 T00760026  RH  070%=      5-min Rain = 0
KLO1 131537Z 15008KT 08/03 A3033 RMK A01 T00760026  RH  070%=      5-min Rain = 0
KLO1 131538Z 15007KT 08/03 A3033 RMK A01 T00770027  RH  070%=      5-min Rain = 0
KLO1 131539Z 15009KT 08/03 A3033 RMK A01 T00780028  RH  070%=      5-min Rain = 0
KLO1 131540Z 15008KT 08/03 A3033 RMK A01 T00780028  RH  071%=      5-min Rain = 0
KLO1 131541Z 14008KT 08/03 A3033 RMK A01 T00780028  RH  071%=      5-min Rain = 0
KLO1 131542Z 15012KT 08/03 A3033 RMK A01 T00790029  RH  070%=      5-min Rain = 0
KLO1 131543Z 15010KT 08/03 A3033 RMK A01 T00790029  RH  070%=      5-min Rain = 0
KLO1 131544Z 16010KT 08/03 A3033 RMK A01 T00790028  RH  070%=      5-min Rain = 0
KLO1 131545Z 16010KT 08/03 A3033 RMK A01 T00790029  RH  070%=      5-min Rain = 0
KLO1 131546Z 16010KT 08/03 A3033 RMK A01 T00790029  RH  071%=      5-min Rain = 0
KLO1 131547Z 16009KT 08/03 A3033 RMK A01 T00790029  RH  071%=      5-min Rain = 0
KLO1 131548Z 15007KT 08/03 A3033 RMK A01 T00790029  RH  071%=      5-min Rain = 0
KLO1 131549Z 15009KT 08/03 A3033 RMK A01 T00810030  RH  070%=      5-min Rain = 0
KLO1 131550Z 16007KT 08/03 A3033 RMK A01 T00820031  RH  070%=      5-min Rain = 0
KLO1 131551Z 15011KT 08/03 A3033 RMK A01 T00830032  RH  070%=      5-min Rain = 0
KLO1 131552Z 16011KT 08/03 A3033 RMK A01 T00830032  RH  070%=      5-min Rain = 0
KLO1 131553Z 15010KT 08/03 A3033 RMK A01 T00830032  RH  070%=      5-min Rain = 0
KLO1 131554Z 15010KT 08/03 A3033 RMK A01 T00830032  RH  070%=      5-min Rain = 0
KLO1 131555Z 16009KT 08/03 A3033 RMK A01 T00830032  RH  070%=      5-min Rain = 0
KLO1 131556Z 16009KT 08/03 A3033 RMK A01 T00830032  RH  070%=      5-min Rain = 0
KLO1 131557Z 16009KT 08/03 A3033 RMK A01 T00840033  RH  070%=      5-min Rain = 0
KLO1 131558Z 17010KT 08/03 A3033 RMK A01 T00840034  RH  071%=      5-min Rain = 0
KLO1 131559Z 16008KT 09/04 A3033 RMK A01 T00850035  RH  071%=      5-min Rain = 0
KLO1 131600Z 16010KT 09/04 A3033 RMK A01 T00860037  RH  071%=      5-min Rain = 0
KLO1 131601Z 16011KT 09/04 A3033 RMK A01 T00860037  RH  071%=      5-min Rain = 0
KLO1 131602Z 17011KT 09/04 A3033 RMK A01 T00860037  RH  071%=      5-min Rain = 0
KLO1 131603Z 16009KT 09/04 A3033 RMK A01 T00870037  RH  071%=      5-min Rain = 0
KLO1 131604Z 17011KT 09/04 A3033 RMK A01 T00870038  RH  071%=      5-min Rain = 0
KLO1 131605Z 16011KT 09/04 A3033 RMK A01 T00880038  RH  071%=      5-min Rain = 0
KLO1 131606Z 16010KT 09/04 A3033 RMK A01 T00870039  RH  072%=      5-min Rain = 0
KLO1 131607Z 16011KT 09/04 A3033 RMK A01 T00870039  RH  072%=      5-min Rain = 0
KLO1 131608Z 17009KT 09/04 A3033 RMK A01 T00870040  RH  072%=      5-min Rain = 0
KLO1 131609Z 17011KT 09/04 A3033 RMK A01 T00890041  RH  072%=      5-min Rain = 0
KLO1 131610Z 17013KT 09/04 A3033 RMK A01 T00890041  RH  072%=      5-min Rain = 0
KLO1 131611Z 16012KT 09/04 A3033 RMK A01 T00880040  RH  072%=      5-min Rain = 0
KLO1 131612Z 16012KT 09/04 A3033 RMK A01 T00880041  RH  072%=      5-min Rain = 0
KLO1 131613Z 17010KT 09/04 A3033 RMK A01 T00890041  RH  072%=      5-min Rain = 0
KLO1 131614Z 17009KT 09/04 A3033 RMK A01 T00890041  RH  072%=      5-min Rain = 0
KLO1 131615Z 17011KT 09/04 A3033 RMK A01 T00900042  RH  072%=      5-min Rain = 0
KLO1 131616Z 17014KT 09/04 A3034 RMK A01 T00910042  RH  071%=      5-min Rain = 0
KLO1 131617Z 17013KT 09/04 A3033 RMK A01 T00910042  RH  071%=      5-min Rain = 0
KLO1 131618Z 16014KT 09/04 A3033 RMK A01 T00910042  RH  072%=      5-min Rain = 0
KLO1 131619Z 16015KT 09/04 A3033 RMK A01 T00910042  RH  072%=      5-min Rain = 0
KLO1 131620Z 17014KT 09/04 A3033 RMK A01 T00900042  RH  072%=      5-min Rain = 0
KLO1 131621Z 17013KT 09/04 A3033 RMK A01 T00910042  RH  072%=      5-min Rain = 0
KLO1 131622Z 16014KT 09/04 A3033 RMK A01 T00900042  RH  072%=      5-min Rain = 0
KLO1 131623Z 16015KT 09/04 A3033 RMK A01 T00910043  RH  072%=      5-min Rain = 0
KLO1 131624Z 16014KT 09/04 A3033 RMK A01 T00900043  RH  072%=      5-min Rain = 0
KLO1 131625Z 16015KT 09/04 A3033 RMK A01 T00900043  RH  072%=      5-min Rain = 0
KLO1 131626Z 16014KT 09/04 A3033 RMK A01 T00900043  RH  072%=      5-min Rain = 0
KLO1 131627Z 17015KT 09/04 A3033 RMK A01 T00900043  RH  072%=      5-min Rain = 0
KLO1 131628Z 17016KT 09/04 A3033 RMK A01 T00910043  RH  072%=      5-min Rain = 0
KLO1 131629Z 18016KT 09/04 A3033 RMK A01 T00910042  RH  072%=      5-min Rain = 0
KLO1 131630Z 18017KT 09/04 A3033 RMK A01 T00910042  RH  071%=      5-min Rain = 0
KLO1 131631Z 17016KT 09/04 A3033 RMK A01 T00920042  RH  071%=      5-min Rain = 0
KLO1 131632Z 17016KT 09/04 A3033 RMK A01 T00920042  RH  071%=      5-min Rain = 0
KLO1 131633Z 17016KT 09/04 A3033 RMK A01 T00930042  RH  070%=      5-min Rain = 0
KLO1 131634Z 17016KT 09/04 A3033 RMK A01 T00930041  RH  070%=      5-min Rain = 0
KLO1 131635Z 18014KT 09/04 A3033 RMK A01 T00940042  RH  070%=      5-min Rain = 0
KLO1 131636Z 17014KT 10/04 A3033 RMK A01 T00960042  RH  069%=      5-min Rain = 0
KLO1 131637Z 18012KT 10/04 A3033 RMK A01 T00960041  RH  069%=      5-min Rain = 0
KLO1 131638Z 17011KT 10/04 A3033 RMK A01 T00980043  RH  068%=      5-min Rain = 0
KLO1 131639Z 17010KT 10/04 A3033 RMK A01 T01010044  RH  068%=      5-min Rain = 0
KLO1 131640Z 16012KT 10/04 A3033 RMK A01 T01020044  RH  067%=      5-min Rain = 0
KLO1 131641Z 16017KT 10/04 A3033 RMK A01 T01030044  RH  067%=      5-min Rain = 0
KLO1 131642Z 16017KT 10/04 A3033 RMK A01 T01000042  RH  067%=      5-min Rain = 0
KLO1 131643Z 16015KT 10/04 A3033 RMK A01 T00980041  RH  068%=      5-min Rain = 0
KLO1 131644Z 18014KT 10/04 A3033 RMK A01 T00970042  RH  068%=      5-min Rain = 0
KLO1 131645Z 18012KT 10/04 A3033 RMK A01 T00980041  RH  068%=      5-min Rain = 0
KLO1 131646Z 17016KT 10/04 A3033 RMK A01 T00990041  RH  067%=      5-min Rain = 0
KLO1 131647Z 17014KT 10/04 A3033 RMK A01 T00990041  RH  067%=      5-min Rain = 0
KLO1 131648Z 17013KT 10/04 A3033 RMK A01 T00990041  RH  067%=      5-min Rain = 0
KLO1 131649Z 16013KT 10/04 A3033 RMK A01 T00990041  RH  067%=      5-min Rain = 0
KLO1 131650Z 16015KT 10/04 A3033 RMK A01 T01000042  RH  067%=      5-min Rain = 0
KLO1 131651Z 17016KT 10/04 A3033 RMK A01 T01010042  RH  067%=      5-min Rain = 0
KLO1 131652Z 17016KT 10/04 A3033 RMK A01 T01010040  RH  066%=      5-min Rain = 0
KLO1 131653Z 17015KT 10/04 A3033 RMK A01 T01000040  RH  066%=      5-min Rain = 0
KLO1 131654Z 17013KT 10/04 A3033 RMK A01 T01000041  RH  066%=      5-min Rain = 0
KLO1 131655Z 17013KT 10/04 A3033 RMK A01 T01020042  RH  066%=      5-min Rain = 0
KLO1 131656Z 17013KT 10/04 A3033 RMK A01 T01030041  RH  065%=      5-min Rain = 0
KLO1 131657Z 17014KT 10/04 A3034 RMK A01 T01030040  RH  065%=      5-min Rain = 0
KLO1 131658Z 16014KT 10/04 A3034 RMK A01 T01030041  RH  065%=      5-min Rain = 0
KLO1 131659Z 16014KT 10/04 A3034 RMK A01 T01030040  RH  065%=      5-min Rain = 0
KLO1 131700Z 16012KT 10/04 A3034 RMK A01 T01030040  RH  065%=      5-min Rain = 0
KLO1 131701Z 17013KT 10/04 A3034 RMK A01 T01040041  RH  065%=      5-min Rain = 0
KLO1 131702Z 17012KT 11/04 A3034 RMK A01 T01050041  RH  065%=      5-min Rain = 0
KLO1 131703Z 17010KT 11/04 A3034 RMK A01 T01060041  RH  064%=      5-min Rain = 0
KLO1 131704Z 17014KT 11/04 A3034 RMK A01 T01060041  RH  064%=      5-min Rain = 0
KLO1 131705Z 16016KT 11/04 A3034 RMK A01 T01060041  RH  064%=      5-min Rain = 0
KLO1 131706Z 16013KT 11/04 A3034 RMK A01 T01060040  RH  064%=      5-min Rain = 0
KLO1 131707Z 16014KT 11/04 A3034 RMK A01 T01050041  RH  064%=      5-min Rain = 0
KLO1 131708Z 16013KT 11/04 A3034 RMK A01 T01070043  RH  065%=      5-min Rain = 0
KLO1 131709Z 17015KT 11/04 A3034 RMK A01 T01070043  RH  064%=      5-min Rain = 0
KLO1 131710Z 17015KT 11/04 A3034 RMK A01 T01080043  RH  064%=      5-min Rain = 0
KLO1 131711Z 17015KT 11/04 A3034 RMK A01 T01090043  RH  064%=      5-min Rain = 0
KLO1 131712Z 17014KT 11/04 A3034 RMK A01 T01080042  RH  063%=      5-min Rain = 0
KLO1 131713Z 17011KT 11/04 A3034 RMK A01 T01080042  RH  064%=      5-min Rain = 0
KLO1 131714Z 17013KT 11/04 A3034 RMK A01 T01090043  RH  064%=      5-min Rain = 0
KLO1 131715Z 16013KT 11/04 A3034 RMK A01 T01110043  RH  063%=      5-min Rain = 0
KLO1 131716Z 17014KT 11/04 A3034 RMK A01 T01100044  RH  063%=      5-min Rain = 0
KLO1 131717Z 17017KT 11/04 A3034 RMK A01 T01100043  RH  063%=      5-min Rain = 0
KLO1 131718Z 17014G19KT 11/04 A3034 RMK A01 T01100044  RH  064%=      5-min Rain = 0
KLO1 131719Z 17017KT 11/04 A3034 RMK A01 T01100043  RH  064%=      5-min Rain = 0
KLO1 131720Z 17017KT 11/04 A3034 RMK A01 T01090043  RH  064%=      5-min Rain = 0
KLO1 131721Z 17014KT 11/04 A3034 RMK A01 T01090044  RH  064%=      5-min Rain = 0
KLO1 131722Z 17017KT 11/05 A3034 RMK A01 T01080045  RH  065%=      5-min Rain = 0
KLO1 131723Z 17018KT 11/04 A3034 RMK A01 T01080044  RH  065%=      5-min Rain = 0
KLO1 131724Z 17016KT 11/04 A3034 RMK A01 T01080044  RH  064%=      5-min Rain = 0
KLO1 131725Z 17014KT 11/04 A3034 RMK A01 T01080044  RH  065%=      5-min Rain = 0
KLO1 131726Z 18015KT 11/05 A3034 RMK A01 T01100045  RH  064%=      5-min Rain = 0
KLO1 131727Z 19015KT 11/05 A3034 RMK A01 T01120045  RH  063%=      5-min Rain = 0
KLO1 131728Z 18015KT 12/05 A3034 RMK A01 T01150046  RH  063%=      5-min Rain = 0
KLO1 131729Z 18015KT 12/04 A3034 RMK A01 T01150044  RH  062%=      5-min Rain = 0
KLO1 131730Z 18014KT 11/04 A3034 RMK A01 T01130043  RH  062%=      5-min Rain = 0
KLO1 131731Z 19016KT 11/04 A3034 RMK A01 T01120044  RH  063%=      5-min Rain = 0
KLO1 131732Z 18015KT 11/04 A3034 RMK A01 T01120043  RH  063%=      5-min Rain = 0
KLO1 131733Z 18015KT 11/04 A3034 RMK A01 T01130044  RH  062%=      5-min Rain = 0
KLO1 131734Z 17015KT 11/04 A3033 RMK A01 T01140044  RH  062%=      5-min Rain = 0
KLO1 131735Z 19015KT 12/05 A3033 RMK A01 T01150045  RH  062%=      5-min Rain = 0
KLO1 131736Z 18013KT 12/05 A3033 RMK A01 T01190046  RH  061%=      5-min Rain = 0
KLO1 131737Z 18013KT 12/05 A3033 RMK A01 T01210046  RH  060%=      5-min Rain = 0
KLO1 131738Z 18015KT 12/05 A3033 RMK A01 T01210046  RH  060%=      5-min Rain = 0
KLO1 131739Z 17015KT 12/05 A3033 RMK A01 T01210045  RH  060%=      5-min Rain = 0
KLO1 131740Z 16015KT 12/05 A3033 RMK A01 T01220047  RH  060%=      5-min Rain = 0
KLO1 131741Z 17013G18KT 12/05 A3033 RMK A01 T01220046  RH  060%=      5-min Rain = 0
KLO1 131742Z 17013KT 12/04 A3033 RMK A01 T01210044  RH  059%=      5-min Rain = 0
KLO1 131743Z 17013KT 12/04 A3033 RMK A01 T01190044  RH  060%=      5-min Rain = 0
KLO1 131744Z 18013KT 12/04 A3033 RMK A01 T01190044  RH  060%=      5-min Rain = 0
KLO1 131745Z 18014KT 12/04 A3033 RMK A01 T01190043  RH  060%=      5-min Rain = 0
KLO1 131746Z 17012G17KT 12/04 A3033 RMK A01 T01180043  RH  060%=      5-min Rain = 0
KLO1 131747Z 17014KT 12/04 A3032 RMK A01 T01200044  RH  060%=      5-min Rain = 0
KLO1 131748Z 17013KT 12/04 A3032 RMK A01 T01190043  RH  060%=      5-min Rain = 0
KLO1 131749Z 17015KT 12/05 A3032 RMK A01 T01200045  RH  060%=      5-min Rain = 0
KLO1 131750Z 17014KT 12/04 A3032 RMK A01 T01210044  RH  059%=      5-min Rain = 0
KLO1 131751Z 16013KT 12/05 A3032 RMK A01 T01220046  RH  060%=      5-min Rain = 0
KLO1 131752Z 16014KT 13/05 A3032 RMK A01 T01250047  RH  059%=      5-min Rain = 0
KLO1 131753Z 16016KT 13/05 A3032 RMK A01 T01270046  RH  058%=      5-min Rain = 0
KLO1 131754Z 16016KT 13/04 A3032 RMK A01 T01250044  RH  058%=      5-min Rain = 0
KLO1 131755Z 17014KT 12/04 A3032 RMK A01 T01240044  RH  058%=      5-min Rain = 0
KLO1 131756Z 17015KT 12/04 A3032 RMK A01 T01240044  RH  058%=      5-min Rain = 0
KLO1 131757Z 17014KT 12/04 A3032 RMK A01 T01240043  RH  058%=      5-min Rain = 0
KLO1 131758Z 16013KT 12/04 A3032 RMK A01 T01240044  RH  058%=      5-min Rain = 0
KLO1 131759Z 17011KT 12/04 A3032 RMK A01 T01240044  RH  058%=      5-min Rain = 0
KLO1 131800Z 16013KT 13/05 A3031 RMK A01 T01260046  RH  058%=      5-min Rain = 0
KLO1 131801Z 16016KT 13/05 A3031 RMK A01 T01280047  RH  058%=      5-min Rain = 0
KLO1 131802Z 17014KT 13/05 A3031 RMK A01 T01290047  RH  057%=      5-min Rain = 0
KLO1 131803Z 17013KT 13/05 A3031 RMK A01 T01300047  RH  057%=      5-min Rain = 0
KLO1 131804Z 17013KT 13/05 A3031 RMK A01 T01320048  RH  057%=      5-min Rain = 0
KLO1 131805Z 18012KT 13/05 A3031 RMK A01 T01330047  RH  056%=      5-min Rain = 0
KLO1 131806Z 16011G16KT 13/05 A3031 RMK A01 T01340050  RH  057%=      5-min Rain = 0
KLO1 131807Z 17014KT 14/05 A3031 RMK A01 T01370051  RH  056%=      5-min Rain = 0
KLO1 131808Z 17013KT 14/05 A3031 RMK A01 T01360047  RH  055%=      5-min Rain = 0
KLO1 131809Z 18015KT 13/05 A3031 RMK A01 T01340048  RH  056%=      5-min Rain = 0
KLO1 131810Z 18016KT 13/05 A3031 RMK A01 T01340048  RH  056%=      5-min Rain = 0
KLO1 131811Z 18013G18KT 13/05 A3031 RMK A01 T01320046  RH  056%=      5-min Rain = 0
KLO1 131812Z 18014KT 13/05 A3031 RMK A01 T01300046  RH  056%=      5-min Rain = 0
KLO1 131813Z 17013KT 13/05 A3031 RMK A01 T01290046  RH  057%=      5-min Rain = 0
KLO1 131814Z 17013KT 13/05 A3031 RMK A01 T01280045  RH  057%=      5-min Rain = 0
KLO1 131815Z 17012KT 13/05 A3031 RMK A01 T01280047  RH  058%=      5-min Rain = 0
KLO1 131816Z 17014KT 13/05 A3031 RMK A01 T01320050  RH  057%=      5-min Rain = 0
KLO1 131817Z 18011KT 13/05 A3031 RMK A01 T01340049  RH  056%=      5-min Rain = 0
KLO1 131818Z 17013KT 14/05 A3031 RMK A01 T01370051  RH  056%=      5-min Rain = 0
KLO1 131819Z 17016KT 14/05 A3031 RMK A01 T01390052  RH  056%=      5-min Rain = 0
KLO1 131820Z 16016KT 14/05 A3031 RMK A01 T01420052  RH  055%=      5-min Rain = 0
KLO1 131821Z 17014KT 14/05 A303 RMK A01 T01390049  RH  054%=      5-min Rain = 0
KLO1 131822Z 16010KT 14/05 A303 RMK A01 T01360048  RH  055%=      5-min Rain = 0
KLO1 131823Z 16017KT 14/05 A303 RMK A01 T01350050  RH  056%=      5-min Rain = 0
KLO1 131824Z 16017KT 14/05 A303 RMK A01 T01350051  RH  057%=      5-min Rain = 0
KLO1 131825Z 17018KT 14/05 A303 RMK A01 T01360052  RH  057%=      5-min Rain = 0
KLO1 131826Z 17014KT 14/05 A303 RMK A01 T01360051  RH  056%=      5-min Rain = 0
KLO1 131827Z 17017KT 14/05 A303 RMK A01 T01380053  RH  056%=      5-min Rain = 0
KLO1 131828Z 18012KT 14/05 A3031 RMK A01 T01390053  RH  056%=      5-min Rain = 0
KLO1 131829Z 17015KT 14/05 A303 RMK A01 T01420053  RH  055%=      5-min Rain = 0
KLO1 131830Z 18017KT 14/05 A303 RMK A01 T01440053  RH  054%=      5-min Rain = 0
KLO1 131831Z 18019KT 14/05 A303 RMK A01 T01420052  RH  054%=      5-min Rain = 0
KLO1 131832Z 18019KT 14/05 A303 RMK A01 T01420052  RH  055%=      5-min Rain = 0
KLO1 131833Z 18018KT 14/05 A303 RMK A01 T01420051  RH  054%=      5-min Rain = 0
KLO1 131834Z 17016KT 14/05 A303 RMK A01 T01410051  RH  054%=      5-min Rain = 0
KLO1 131835Z 18013KT 14/05 A303 RMK A01 T01410052  RH  055%=      5-min Rain = 0
KLO1 131836Z 17013KT 14/05 A303 RMK A01 T01430052  RH  054%=      5-min Rain = 0
KLO1 131837Z 18015KT 14/05 A303 RMK A01 T01430051  RH  054%=      5-min Rain = 0
KLO1 131838Z 18014KT 14/05 A303 RMK A01 T01430052  RH  054%=      5-min Rain = 0
KLO1 131839Z 18017KT 15/05 A303 RMK A01 T01470054  RH  054%=      5-min Rain = 0
KLO1 131840Z 18015KT 15/05 A303 RMK A01 T01470052  RH  053%=      5-min Rain = 0
KLO1 131841Z 16017KT 14/05 A3029 RMK A01 T01440051  RH  054%=      5-min Rain = 0
KLO1 131842Z 17012G18KT 14/05 A3029 RMK A01 T01430052  RH  054%=      5-min Rain = 0
KLO1 131843Z 17016KT 15/05 A3029 RMK A01 T01450054  RH  054%=      5-min Rain = 0
KLO1 131844Z 18019KT 15/05 A3029 RMK A01 T01460053  RH  054%=      5-min Rain = 0
KLO1 131845Z 18017KT 15/05 A3029 RMK A01 T01460052  RH  053%=      5-min Rain = 0
KLO1 131846Z 18017KT 15/05 A3029 RMK A01 T01450052  RH  053%=      5-min Rain = 0
KLO1 131847Z 18017KT 15/05 A3029 RMK A01 T01470053  RH  053%=      5-min Rain = 0
KLO1 131848Z 18016KT 15/05 A3029 RMK A01 T01490053  RH  053%=      5-min Rain = 0
KLO1 131849Z 18013KT 15/05 A3029 RMK A01 T01490053  RH  052%=      5-min Rain = 0
KLO1 131850Z 18013KT 15/05 A3029 RMK A01 T01510053  RH  052%=      5-min Rain = 0
KLO1 131851Z 18011KT 15/05 A3029 RMK A01 T01520053  RH  051%=      5-min Rain = 0
KLO1 131852Z 16016G21KT 16/05 A3029 RMK A01 T01550053  RH  051%=      5-min Rain = 0
KLO1 131853Z 17016KT 15/05 A3029 RMK A01 T01540053  RH  051%=      5-min Rain = 0
KLO1 131854Z 18014KT 16/05 A3029 RMK A01 T01550054  RH  051%=      5-min Rain = 0
KLO1 131855Z 17014KT 16/05 A3029 RMK A01 T01570054  RH  050%=      5-min Rain = 0
KLO1 131856Z 18011KT 16/05 A3029 RMK A01 T01560053  RH  050%=      5-min Rain = 0
KLO1 131857Z 15013KT 16/05 A3029 RMK A01 T01570053  RH  050%=      5-min Rain = 0
KLO1 131858Z 16013KT 16/05 A3029 RMK A01 T01570051  RH  049%=      5-min Rain = 0
KLO1 131859Z 15016KT 16/05 A3029 RMK A01 T01570051  RH  049%=      5-min Rain = 0
KLO1 131900Z 15017KT 16/05 A3029 RMK A01 T01570052  RH  050%=      5-min Rain = 0
KLO1 131901Z 17014KT 16/05 A3029 RMK A01 T01570051  RH  049%=      5-min Rain = 0
KLO1 131902Z 17014KT 16/05 A3028 RMK A01 T01570051  RH  049%=      5-min Rain = 0
KLO1 131903Z 17017KT 16/05 A3028 RMK A01 T01570052  RH  050%=      5-min Rain = 0
KLO1 131904Z 17011KT 16/05 A3029 RMK A01 T01570052  RH  050%=      5-min Rain = 0
KLO1 131905Z 17009KT 16/05 A3029 RMK A01 T01580054  RH  050%=      5-min Rain = 0
KLO1 131906Z 18010KT 16/05 A3029 RMK A01 T01590054  RH  050%=      5-min Rain = 0
KLO1 131907Z 17017KT 16/05 A3028 RMK A01 T01590053  RH  049%=      5-min Rain = 0
KLO1 131908Z 18011G17KT 16/05 A3029 RMK A01 T01580052  RH  049%=      5-min Rain = 0
KLO1 131909Z 16013KT 16/05 A3029 RMK A01 T01580054  RH  050%=      5-min Rain = 0
KLO1 131910Z 17015KT 16/06 A3028 RMK A01 T01610056  RH  050%=      5-min Rain = 0
KLO1 131911Z 17011KT 16/06 A3029 RMK A01 T01610055  RH  049%=      5-min Rain = 0
KLO1 131912Z 18009KT 16/06 A3028 RMK A01 T01600055  RH  049%=      5-min Rain = 0
KLO1 131913Z 18015KT 16/06 A3028 RMK A01 T01610055  RH  050%=      5-min Rain = 0
KLO1 131914Z 19012KT 16/05 A3028 RMK A01 T01620054  RH  049%=      5-min Rain = 0
KLO1 131915Z 19012G18KT 16/05 A3028 RMK A01 T01610053  RH  049%=      5-min Rain = 0
KLO1 131916Z 17017KT 17/06 A3028 RMK A01 T01650057  RH  049%=      5-min Rain = 0
KLO1 131917Z 18014KT 17/06 A3028 RMK A01 T01660055  RH  048%=      5-min Rain = 0
KLO1 131918Z 18015KT 16/06 A3028 RMK A01 T01640055  RH  048%=      5-min Rain = 0
KLO1 131919Z 17017KT 16/06 A3028 RMK A01 T01640055  RH  048%=      5-min Rain = 0
KLO1 131920Z 18014KT 16/06 A3028 RMK A01 T01630056  RH  049%=      5-min Rain = 0
KLO1 131921Z 17015KT 16/06 A3028 RMK A01 T01620057  RH  050%=      5-min Rain = 0
KLO1 131922Z 19016KT 16/06 A3028 RMK A01 T01630057  RH  049%=      5-min Rain = 0
KLO1 131923Z 18013G18KT 16/06 A3028 RMK A01 T01620055  RH  049%=      5-min Rain = 0
KLO1 131924Z 19015KT 16/06 A3028 RMK A01 T01620057  RH  050%=      5-min Rain = 0
KLO1 131925Z 18013KT 17/06 A3028 RMK A01 T01650059  RH  049%=      5-min Rain = 0
KLO1 131926Z 18015G20KT 17/06 A3028 RMK A01 T01690059  RH  048%=      5-min Rain = 0
KLO1 131927Z 18014G19KT 17/06 A3028 RMK A01 T01700058  RH  048%=      5-min Rain = 0
KLO1 131928Z 18016KT 17/06 A3028 RMK A01 T01690058  RH  048%=      5-min Rain = 0
KLO1 131929Z 17016KT 17/06 A3027 RMK A01 T01650056  RH  048%=      5-min Rain = 0
KLO1 131930Z 17011KT 16/06 A3027 RMK A01 T01630056  RH  049%=      5-min Rain = 0
KLO1 131931Z 16012KT 16/06 A3027 RMK A01 T01630058  RH  050%=      5-min Rain = 0
KLO1 131932Z 16015KT 17/06 A3027 RMK A01 T01680062  RH  050%=      5-min Rain = 0
KLO1 131933Z 18017G23KT 17/06 A3027 RMK A01 T01690061  RH  049%=      5-min Rain = 0
KLO1 131934Z 17017KT 17/06 A3027 RMK A01 T01690060  RH  049%=      5-min Rain = 0
KLO1 131935Z 17015G20KT 17/06 A3027 RMK A01 T01680059  RH  048%=      5-min Rain = 0
KLO1 131936Z 18015KT 17/06 A3027 RMK A01 T01690059  RH  048%=      5-min Rain = 0
KLO1 131937Z 18014KT 17/06 A3028 RMK A01 T01700059  RH  048%=      5-min Rain = 0
KLO1 131938Z 19011KT 17/06 A3027 RMK A01 T01700058  RH  048%=      5-min Rain = 0
KLO1 131939Z 20014KT 17/06 A3027 RMK A01 T01700058  RH  048%=      5-min Rain = 0
KLO1 131940Z 18015KT 17/06 A3027 RMK A01 T01700058  RH  047%=      5-min Rain = 0
KLO1 131941Z 16013KT 17/06 A3027 RMK A01 T01710058  RH  047%=      5-min Rain = 0
KLO1 131942Z 16014KT 17/06 A3027 RMK A01 T01710059  RH  048%=      5-min Rain = 0
KLO1 131943Z 18014KT 17/06 A3027 RMK A01 T01700058  RH  048%=      5-min Rain = 0
KLO1 131944Z 19014KT 17/06 A3027 RMK A01 T01690057  RH  048%=      5-min Rain = 0
KLO1 131945Z 18015KT 17/06 A3027 RMK A01 T01690058  RH  048%=      5-min Rain = 0
KLO1 131946Z 18017KT 17/06 A3027 RMK A01 T01710059  RH  048%=      5-min Rain = 0
KLO1 131947Z 17014KT 17/06 A3027 RMK A01 T01720059  RH  047%=      5-min Rain = 0
KLO1 131948Z 16012KT 17/06 A3027 RMK A01 T01720059  RH  047%=      5-min Rain = 0
KLO1 131949Z 17014KT 17/06 A3027 RMK A01 T01720059  RH  048%=      5-min Rain = 0
KLO1 131950Z 17014KT 17/06 A3026 RMK A01 T01720059  RH  047%=      5-min Rain = 0
KLO1 131951Z 16014KT 17/06 A3026 RMK A01 T01720059  RH  047%=      5-min Rain = 0
KLO1 131952Z 18013KT 17/06 A3026 RMK A01 T01700059  RH  048%=      5-min Rain = 0
KLO1 131953Z 19013KT 17/06 A3026 RMK A01 T01700058  RH  048%=      5-min Rain = 0
KLO1 131954Z 18015KT 17/06 A3026 RMK A01 T01700058  RH  048%=      5-min Rain = 0
KLO1 131955Z 16016KT 17/06 A3026 RMK A01 T01730060  RH  047%=      5-min Rain = 0
KLO1 131956Z 18016KT 17/06 A3026 RMK A01 T01720059  RH  047%=      5-min Rain = 0
KLO1 131957Z 18014KT 17/06 A3026 RMK A01 T01720059  RH  047%=      5-min Rain = 0
KLO1 131958Z 19012KT 17/06 A3026 RMK A01 T01720059  RH  047%=      5-min Rain = 0
KLO1 131959Z 17010KT 17/06 A3026 RMK A01 T01710058  RH  047%=      5-min Rain = 0
KLO1 132000Z 18009KT 17/06 A3026 RMK A01 T01720060  RH  048%=      5-min Rain = 0
KLO1 132001Z 18009KT 18/06 A3026 RMK A01 T01750060  RH  047%=      5-min Rain = 0
KLO1 132002Z 19015KT 18/06 A3026 RMK A01 T01770060  RH  046%=      5-min Rain = 0
KLO1 132003Z 20013KT 18/06 A3026 RMK A01 T01780059  RH  045%=      5-min Rain = 0
KLO1 132004Z 18014KT 18/06 A3026 RMK A01 T01780059  RH  045%=      5-min Rain = 0
KLO1 132005Z 18011KT 18/06 A3026 RMK A01 T01760059  RH  046%=      5-min Rain = 0
KLO1 132006Z 18011KT 18/06 A3026 RMK A01 T01770059  RH  046%=      5-min Rain = 0
KLO1 132007Z 18009KT 18/06 A3026 RMK A01 T01760058  RH  046%=      5-min Rain = 0
KLO1 132008Z 17010KT 18/06 A3026 RMK A01 T01750058  RH  046%=      5-min Rain = 0
KLO1 132009Z 17009KT 18/06 A3026 RMK A01 T01750058  RH  046%=      5-min Rain = 0
KLO1 132010Z 16010KT 17/06 A3026 RMK A01 T01740059  RH  046%=      5-min Rain = 0
KLO1 132011Z 18013KT 18/06 A3025 RMK A01 T01750059  RH  046%=      5-min Rain = 0
KLO1 132012Z 18014KT 18/06 A3025 RMK A01 T01770059  RH  046%=      5-min Rain = 0
KLO1 132013Z 18010KT 18/06 A3026 RMK A01 T01760057  RH  046%=      5-min Rain = 0
KLO1 132014Z 20010KT 17/06 A3026 RMK A01 T01740057  RH  046%=      5-min Rain = 0
KLO1 132015Z 18011G16KT 18/06 A3026 RMK A01 T01760060  RH  046%=      5-min Rain = 0
KLO1 132016Z 18014KT 18/06 A3025 RMK A01 T01790059  RH  045%=      5-min Rain = 0
KLO1 132017Z 18012KT 18/06 A3025 RMK A01 T01800059  RH  045%=      5-min Rain = 0
KLO1 132018Z 17011KT 18/06 A3025 RMK A01 T01810058  RH  044%=      5-min Rain = 0
KLO1 132019Z 17013KT 18/06 A3025 RMK A01 T01810058  RH  044%=      5-min Rain = 0
KLO1 132020Z 18011KT 18/06 A3025 RMK A01 T01800058  RH  045%=      5-min Rain = 0
KLO1 132021Z 17014KT 18/06 A3025 RMK A01 T01790059  RH  045%=      5-min Rain = 0
KLO1 132022Z 18014KT 18/06 A3025 RMK A01 T01810060  RH  045%=      5-min Rain = 0
KLO1 132023Z 18013KT 18/06 A3025 RMK A01 T01810058  RH  045%=      5-min Rain = 0
KLO1 132024Z 17010KT 18/06 A3025 RMK A01 T01790057  RH  045%=      5-min Rain = 0
KLO1 132025Z 16010KT 18/06 A3025 RMK A01 T01760058  RH  046%=      5-min Rain = 0
KLO1 132026Z 17010G16KT 18/06 A3024 RMK A01 T01770059  RH  046%=      5-min Rain = 0
KLO1 132027Z 18013KT 18/06 A3024 RMK A01 T01770059  RH  046%=      5-min Rain = 0
KLO1 132028Z 17014KT 18/06 A3024 RMK A01 T01780058  RH  045%=      5-min Rain = 0
KLO1 132029Z 16012KT 18/06 A3024 RMK A01 T01790058  RH  045%=      5-min Rain = 0
KLO1 132030Z 18012KT 18/06 A3024 RMK A01 T01800059  RH  045%=      5-min Rain = 0
KLO1 132031Z 20010KT 18/06 A3024 RMK A01 T01820059  RH  044%=      5-min Rain = 0
KLO1 132032Z 20011KT 18/06 A3024 RMK A01 T01830059  RH  044%=      5-min Rain = 0
KLO1 132033Z 19013KT 18/06 A3024 RMK A01 T01840059  RH  044%=      5-min Rain = 0
KLO1 132034Z 19013KT 19/06 A3024 RMK A01 T01850058  RH  043%=      5-min Rain = 0
KLO1 132035Z 18012KT 18/06 A3024 RMK A01 T01840058  RH  043%=      5-min Rain = 0
KLO1 132036Z 19013KT 19/06 A3024 RMK A01 T01860059  RH  043%=      5-min Rain = 0
KLO1 132037Z 19012KT 19/06 A3024 RMK A01 T01860059  RH  043%=      5-min Rain = 0
KLO1 132038Z 19011G16KT 19/06 A3024 RMK A01 T01850058  RH  044%=      5-min Rain = 0
KLO1 132039Z 17011KT 19/06 A3024 RMK A01 T01860058  RH  043%=      5-min Rain = 0
KLO1 132040Z 17013KT 19/06 A3023 RMK A01 T01860058  RH  043%=      5-min Rain = 0
KLO1 132041Z 17011G17KT 19/06 A3024 RMK A01 T01880058  RH  043%=      5-min Rain = 0
KLO1 132042Z 17014KT 19/06 A3024 RMK A01 T01880057  RH  042%=      5-min Rain = 0
KLO1 132043Z 17014KT 19/06 A3023 RMK A01 T01880058  RH  043%=      5-min Rain = 0
KLO1 132044Z 18013KT 19/06 A3023 RMK A01 T01860057  RH  043%=      5-min Rain = 0
KLO1 132045Z 18010KT 19/06 A3023 RMK A01 T01850057  RH  043%=      5-min Rain = 0
KLO1 132046Z 18011KT 19/06 A3023 RMK A01 T01870058  RH  043%=      5-min Rain = 0
KLO1 132047Z 19010KT 19/06 A3023 RMK A01 T01860057  RH  043%=      5-min Rain = 0
KLO1 132048Z 18009KT 19/06 A3023 RMK A01 T01850057  RH  043%=      5-min Rain = 0
KLO1 132049Z 20009KT 18/06 A3023 RMK A01 T01840056  RH  043%=      5-min Rain = 0
KLO1 132050Z 20010KT 18/06 A3023 RMK A01 T01840056  RH  043%=      5-min Rain = 0
KLO1 132051Z 17010KT 18/06 A3023 RMK A01 T01820057  RH  044%=      5-min Rain = 0
KLO1 132052Z 16010G15KT 18/06 A3023 RMK A01 T01830059  RH  044%=      5-min Rain = 0
KLO1 132053Z 16012KT 19/06 A3023 RMK A01 T01850061  RH  044%=      5-min Rain = 0
KLO1 132054Z 17012KT 19/06 A3023 RMK A01 T01860061  RH  044%=      5-min Rain = 0
KLO1 132055Z 16010KT 19/06 A3023 RMK A01 T01850060  RH  044%=      5-min Rain = 0
KLO1 132056Z 16009KT 19/06 A3023 RMK A01 T01860061  RH  044%=      5-min Rain = 0
KLO1 132057Z 19011KT 19/06 A3023 RMK A01 T01880059  RH  043%=      5-min Rain = 0
KLO1 132058Z 20013KT 19/06 A3023 RMK A01 T01890057  RH  042%=      5-min Rain = 0
KLO1 132059Z 19009KT 19/06 A3023 RMK A01 T01890057  RH  042%=      5-min Rain = 0
KLO1 132100Z 18014KT 19/06 A3023 RMK A01 T01890057  RH  042%=      5-min Rain = 0
KLO1 132101Z 17014KT 19/06 A3023 RMK A01 T01890055  RH  042%=      5-min Rain = 0
KLO1 132102Z 18013KT 19/06 A3023 RMK A01 T01890055  RH  042%=      5-min Rain = 0
KLO1 132103Z 17011KT 19/06 A3023 RMK A01 T01890055  RH  041%=      5-min Rain = 0
KLO1 132104Z 18011KT 19/05 A3023 RMK A01 T01880053  RH  041%=      5-min Rain = 0
KLO1 132105Z 20010KT 19/05 A3023 RMK A01 T01880052  RH  041%=      5-min Rain = 0
KLO1 132106Z 19010KT 19/05 A3023 RMK A01 T01890051  RH  040%=      5-min Rain = 0
KLO1 132107Z 19012KT 19/05 A3023 RMK A01 T01900052  RH  040%=      5-min Rain = 0
KLO1 132108Z 19011KT 19/05 A3023 RMK A01 T01910053  RH  040%=      5-min Rain = 0
KLO1 132109Z 19011KT 19/06 A3023 RMK A01 T01930055  RH  040%=      5-min Rain = 0
KLO1 132110Z 20011KT 19/05 A3023 RMK A01 T01930054  RH  040%=      5-min Rain = 0
KLO1 132111Z 19011KT 19/05 A3023 RMK A01 T01920053  RH  040%=      5-min Rain = 0
KLO1 132112Z 18010KT 19/05 A3023 RMK A01 T01910052  RH  040%=      5-min Rain = 0
KLO1 132113Z 18010KT 19/05 A3023 RMK A01 T01910053  RH  040%=      5-min Rain = 0
KLO1 132114Z 19012KT 19/05 A3023 RMK A01 T01930052  RH  040%=      5-min Rain = 0
KLO1 132115Z 20013KT 19/05 A3023 RMK A01 T01940051  RH  039%=      5-min Rain = 0
KLO1 132116Z 20012KT 19/05 A3023 RMK A01 T01920051  RH  039%=      5-min Rain = 0
KLO1 132117Z 19011KT 19/05 A3023 RMK A01 T01900050  RH  040%=      5-min Rain = 0
KLO1 132118Z 18008KT 19/05 A3023 RMK A01 T01900051  RH  040%=      5-min Rain = 0
KLO1 132119Z 18008KT 19/05 A3023 RMK A01 T01890051  RH  040%=      5-min Rain = 0
KLO1 132120Z 19008KT 19/05 A3023 RMK A01 T01880050  RH  040%=      5-min Rain = 0
KLO1 132121Z 18011KT 19/05 A3023 RMK A01 T01880051  RH  040%=      5-min Rain = 0
KLO1 132122Z 18011KT 19/05 A3023 RMK A01 T01890051  RH  040%=      5-min Rain = 0
KLO1 132123Z 19012KT 19/05 A3023 RMK A01 T01910052  RH  040%=      5-min Rain = 0
KLO1 132124Z 18013KT 19/05 A3023 RMK A01 T01920052  RH  040%=      5-min Rain = 0
KLO1 132125Z 18011KT 19/05 A3022 RMK A01 T01920051  RH  040%=      5-min Rain = 0
KLO1 132126Z 18009KT 19/05 A3022 RMK A01 T01910053  RH  040%=      5-min Rain = 0
KLO1 132127Z 15011KT 19/05 A3022 RMK A01 T01910054  RH  041%=      5-min Rain = 0
KLO1 132128Z 15008KT 19/05 A3022 RMK A01 T01910054  RH  041%=      5-min Rain = 0
KLO1 132129Z 16009KT 19/06 A3022 RMK A01 T01910055  RH  041%=      5-min Rain = 0
KLO1 132130Z 15011G16KT 19/06 A3022 RMK A01 T01920055  RH  041%=      5-min Rain = 0
KLO1 132131Z 16013KT 19/06 A3022 RMK A01 T01930056  RH  041%=      5-min Rain = 0
KLO1 132132Z 15013KT 19/06 A3022 RMK A01 T01930057  RH  041%=      5-min Rain = 0
KLO1 132133Z 16012KT 19/06 A3022 RMK A01 T01930056  RH  041%=      5-min Rain = 0
KLO1 132134Z 16011KT 19/06 A3022 RMK A01 T01930055  RH  040%=      5-min Rain = 0
KLO1 132135Z 16010KT 19/06 A3022 RMK A01 T01940057  RH  041%=      5-min Rain = 0
KLO1 132136Z 16010KT 20/06 A3022 RMK A01 T01960059  RH  041%=      5-min Rain = 0
KLO1 132137Z 16009KT 20/06 A3022 RMK A01 T01960058  RH  040%=      5-min Rain = 0
KLO1 132138Z 16009KT 20/06 A3022 RMK A01 T01950057  RH  040%=      5-min Rain = 0
KLO1 132139Z 18010KT 20/06 A3022 RMK A01 T01950057  RH  041%=      5-min Rain = 0
KLO1 132140Z 18011KT 20/06 A3022 RMK A01 T01950056  RH  040%=      5-min Rain = 0
KLO1 132141Z 18010KT 20/06 A3022 RMK A01 T01950056  RH  040%=      5-min Rain = 0
KLO1 132142Z 17012KT 20/06 A3022 RMK A01 T01950056  RH  040%=      5-min Rain = 0
KLO1 132143Z 17011KT 20/06 A3022 RMK A01 T01950056  RH  040%=      5-min Rain = 0
KLO1 132144Z 18009KT 19/06 A3022 RMK A01 T01940056  RH  040%=      5-min Rain = 0
KLO1 132145Z 18008KT 19/06 A3022 RMK A01 T01930056  RH  041%=      5-min Rain = 0
KLO1 132146Z 17012KT 19/06 A3022 RMK A01 T01930056  RH  041%=      5-min Rain = 0
KLO1 132147Z 18012KT 20/06 A3022 RMK A01 T01950056  RH  040%=      5-min Rain = 0
KLO1 132148Z 18012KT 20/06 A3022 RMK A01 T01950055  RH  040%=      5-min Rain = 0
KLO1 132149Z 18010KT 20/06 A3022 RMK A01 T01950055  RH  040%=      5-min Rain = 0
KLO1 132150Z 17011KT 20/06 A3022 RMK A01 T01960056  RH  040%=      5-min Rain = 0
KLO1 132151Z 16009KT 20/06 A3022 RMK A01 T01980058  RH  040%=      5-min Rain = 0
KLO1 132152Z 16012KT 20/06 A3022 RMK A01 T02000058  RH  040%=      5-min Rain = 0
KLO1 132153Z 17011KT 20/06 A3022 RMK A01 T02010057  RH  039%=      5-min Rain = 0
KLO1 132154Z 19013KT 20/06 A3022 RMK A01 T02010056  RH  039%=      5-min Rain = 0
KLO1 132155Z 19013KT 20/06 A3022 RMK A01 T02020055  RH  038%=      5-min Rain = 0
KLO1 132156Z 19010KT 20/06 A3022 RMK A01 T02020055  RH  038%=      5-min Rain = 0
KLO1 132157Z 18009KT 20/06 A3022 RMK A01 T02020056  RH  038%=      5-min Rain = 0
KLO1 132158Z 19010KT 20/06 A3022 RMK A01 T02030056  RH  038%=      5-min Rain = 0
KLO1 132159Z 17010KT 20/06 A3022 RMK A01 T02030056  RH  038%=      5-min Rain = 0
KLO1 132200Z 17008KT 20/06 A3021 RMK A01 T02010055  RH  038%=      5-min Rain = 0
KLO1 132201Z 17010KT 20/06 A3021 RMK A01 T01990055  RH  039%=      5-min Rain = 0
KLO1 132202Z 18012KT 20/06 A3021 RMK A01 T01990055  RH  039%=      5-min Rain = 0
KLO1 132203Z 18012KT 20/05 A3021 RMK A01 T01980053  RH  039%=      5-min Rain = 0
KLO1 132204Z 18011KT 20/05 A3021 RMK A01 T01990054  RH  039%=      5-min Rain = 0
KLO1 132205Z 17009KT 20/06 A3021 RMK A01 T01980055  RH  039%=      5-min Rain = 0
KLO1 132206Z 17007KT 20/06 A3021 RMK A01 T01970056  RH  040%=      5-min Rain = 0
KLO1 132207Z 18009KT 20/06 A3021 RMK A01 T01960056  RH  040%=      5-min Rain = 0
KLO1 132208Z 16008KT 20/06 A3021 RMK A01 T01970057  RH  040%=      5-min Rain = 0
KLO1 132209Z 17007KT 20/06 A3021 RMK A01 T01980058  RH  040%=      5-min Rain = 0
KLO1 132210Z 16010G16KT 20/06 A3021 RMK A01 T01980058  RH  040%=      5-min Rain = 0
KLO1 132211Z 17012KT 20/06 A3021 RMK A01 T01990057  RH  039%=      5-min Rain = 0
KLO1 132212Z 17009KT 20/06 A3021 RMK A01 T02000056  RH  039%=      5-min Rain = 0
KLO1 132213Z 19008KT 20/06 A3021 RMK A01 T02000056  RH  039%=      5-min Rain = 0
KLO1 132214Z 19008KT 20/06 A3021 RMK A01 T02020056  RH  038%=      5-min Rain = 0
KLO1 132215Z 19008KT 20/06 A3021 RMK A01 T02030056  RH  038%=      5-min Rain = 0
KLO1 132216Z 16009KT 20/06 A3021 RMK A01 T02040056  RH  038%=      5-min Rain = 0
KLO1 132217Z 16009KT 20/06 A3021 RMK A01 T02040056  RH  038%=      5-min Rain = 0
KLO1 132218Z 17009KT 20/06 A3021 RMK A01 T02030056  RH  038%=      5-min Rain = 0
KLO1 132219Z 16010KT 20/06 A3021 RMK A01 T02030056  RH  038%=      5-min Rain = 0
KLO1 132220Z 15010KT 20/06 A3021 RMK A01 T02030056  RH  038%=      5-min Rain = 0
KLO1 132221Z 15009KT 20/06 A3021 RMK A01 T02010055  RH  038%=      5-min Rain = 0
KLO1 132222Z 16010KT 20/06 A3021 RMK A01 T02000056  RH  039%=      5-min Rain = 0
KLO1 132223Z 17009KT 20/06 A3021 RMK A01 T02010055  RH  038%=      5-min Rain = 0
KLO1 132224Z 17008KT 20/05 A3021 RMK A01 T02010053  RH  038%=      5-min Rain = 0
KLO1 132225Z 17009KT 20/05 A3021 RMK A01 T02010052  RH  038%=      5-min Rain = 0
KLO1 132226Z 16008KT 20/05 A3021 RMK A01 T02000052  RH  038%=      5-min Rain = 0
KLO1 132227Z 17010KT 20/06 A3021 RMK A01 T02000055  RH  039%=      5-min Rain = 0
KLO1 132228Z 17012KT 20/06 A3021 RMK A01 T02000055  RH  039%=      5-min Rain = 0
KLO1 132229Z 17011KT 20/05 A3021 RMK A01 T01990053  RH  039%=      5-min Rain = 0
KLO1 132230Z 16012KT 20/05 A3021 RMK A01 T01970054  RH  039%=      5-min Rain = 0
KLO1 132231Z 18012KT 20/05 A3021 RMK A01 T01970052  RH  039%=      5-min Rain = 0
KLO1 132232Z 18011KT 20/05 A3021 RMK A01 T01970050  RH  038%=      5-min Rain = 0
KLO1 132233Z 18011KT 20/05 A3021 RMK A01 T01980049  RH  038%=      5-min Rain = 0
KLO1 132234Z 19012KT 20/05 A3021 RMK A01 T01980049  RH  038%=      5-min Rain = 0
KLO1 132235Z 19011KT 20/05 A3021 RMK A01 T01970047  RH  037%=      5-min Rain = 0
KLO1 132236Z 19009KT 20/05 A3021 RMK A01 T01960047  RH  037%=      5-min Rain = 0
KLO1 132237Z 19010KT 20/05 A3021 RMK A01 T01960048  RH  038%=      5-min Rain = 0
KLO1 132238Z 19011KT 20/05 A3021 RMK A01 T01960048  RH  038%=      5-min Rain = 0
KLO1 132239Z 17009KT 20/05 A3021 RMK A01 T01960049  RH  038%=      5-min Rain = 0
KLO1 132240Z 17008KT 20/05 A3021 RMK A01 T01960049  RH  038%=      5-min Rain = 0
KLO1 132241Z 17009KT 20/05 A3021 RMK A01 T01960049  RH  038%=      5-min Rain = 0
KLO1 132242Z 17011KT 20/05 A3021 RMK A01 T01960050  RH  038%=      5-min Rain = 0
KLO1 132243Z 17011KT 20/05 A3021 RMK A01 T01960049  RH  038%=      5-min Rain = 0
KLO1 132244Z 17008KT 20/05 A3021 RMK A01 T01960049  RH  038%=      5-min Rain = 0
KLO1 132245Z 18008KT 20/05 A3021 RMK A01 T01960049  RH  038%=      5-min Rain = 0
KLO1 132246Z 19008KT 20/05 A3021 RMK A01 T01960049  RH  038%=      5-min Rain = 0
KLO1 132247Z 18011KT 20/05 A3021 RMK A01 T01970047  RH  037%=      5-min Rain = 0
KLO1 132248Z 19013KT 20/05 A3021 RMK A01 T01970046  RH  037%=      5-min Rain = 0
KLO1 132249Z 19012KT 20/05 A3021 RMK A01 T01960046  RH  037%=      5-min Rain = 0
KLO1 132250Z 19013KT 20/05 A3021 RMK A01 T01960046  RH  037%=      5-min Rain = 0
KLO1 132251Z 18013KT 20/05 A3021 RMK A01 T01960046  RH  037%=      5-min Rain = 0
KLO1 132252Z 18011KT 20/05 A3021 RMK A01 T01960047  RH  037%=      5-min Rain = 0
KLO1 132253Z 19010KT 20/05 A3021 RMK A01 T01960047  RH  038%=      5-min Rain = 0
KLO1 132254Z 19009KT 20/05 A3021 RMK A01 T01950047  RH  038%=      5-min Rain = 0
KLO1 132255Z 18013KT 20/05 A3021 RMK A01 T01960047  RH  037%=      5-min Rain = 0
KLO1 132256Z 18012KT 20/05 A3021 RMK A01 T01960045  RH  037%=      5-min Rain = 0
KLO1 132257Z 19010KT 20/05 A3021 RMK A01 T01950045  RH  037%=      5-min Rain = 0
KLO1 132258Z 19012KT 20/05 A3021 RMK A01 T01960045  RH  037%=      5-min Rain = 0
KLO1 132259Z 19012KT 20/04 A3021 RMK A01 T01950044  RH  037%=      5-min Rain = 0
KLO1 132300Z 19008KT 20/04 A3021 RMK A01 T01950044  RH  037%=      5-min Rain = 0
KLO1 132301Z 19011KT 20/04 A3021 RMK A01 T01950044  RH  037%=      5-min Rain = 0
KLO1 132302Z 19011KT 20/04 A3021 RMK A01 T01950043  RH  037%=      5-min Rain = 0
KLO1 132303Z 19010KT 20/04 A3021 RMK A01 T01950043  RH  037%=      5-min Rain = 0
KLO1 132304Z 18009KT 20/04 A3022 RMK A01 T01950043  RH  037%=      5-min Rain = 0
KLO1 132305Z 18011KT 20/04 A3022 RMK A01 T01950043  RH  037%=      5-min Rain = 0
KLO1 132306Z 19012KT 20/04 A3022 RMK A01 T01950042  RH  037%=      5-min Rain = 0
KLO1 132307Z 19011KT 19/04 A3022 RMK A01 T01940042  RH  037%=      5-min Rain = 0
KLO1 132308Z 19013KT 19/04 A3022 RMK A01 T01940041  RH  036%=      5-min Rain = 0
KLO1 132309Z 18012KT 19/04 A3022 RMK A01 T01940041  RH  036%=      5-min Rain = 0
KLO1 132310Z 18011KT 19/04 A3022 RMK A01 T01930041  RH  037%=      5-min Rain = 0
KLO1 132311Z 19011KT 19/04 A3022 RMK A01 T01930041  RH  037%=      5-min Rain = 0
KLO1 132312Z 19010KT 19/04 A3022 RMK A01 T01930042  RH  037%=      5-min Rain = 0
KLO1 132313Z 19012KT 19/04 A3022 RMK A01 T01930042  RH  037%=      5-min Rain = 0
KLO1 132314Z 18010KT 19/04 A3022 RMK A01 T01930042  RH  037%=      5-min Rain = 0
KLO1 132315Z 18010KT 19/04 A3022 RMK A01 T01930042  RH  037%=      5-min Rain = 0
KLO1 132316Z 18010KT 19/04 A3022 RMK A01 T01930041  RH  037%=      5-min Rain = 0
KLO1 132317Z 17010KT 19/04 A3022 RMK A01 T01930041  RH  037%=      5-min Rain = 0
KLO1 132318Z 18010KT 19/04 A3022 RMK A01 T01930041  RH  037%=      5-min Rain = 0
KLO1 132319Z 17012KT 19/04 A3022 RMK A01 T01930041  RH  037%=      5-min Rain = 0
KLO1 132320Z 18012KT 19/04 A3022 RMK A01 T01920041  RH  037%=      5-min Rain = 0
KLO1 132321Z 18011KT 19/04 A3022 RMK A01 T01920041  RH  037%=      5-min Rain = 0
KLO1 132322Z 18009KT 19/04 A3022 RMK A01 T01920041  RH  037%=      5-min Rain = 0
KLO1 132323Z 18009KT 19/04 A3022 RMK A01 T01920041  RH  037%=      5-min Rain = 0
KLO1 132324Z 18008KT 19/04 A3022 RMK A01 T01920041  RH  037%=      5-min Rain = 0
KLO1 132325Z 18009KT 19/04 A3022 RMK A01 T01920041  RH  037%=      5-min Rain = 0
KLO1 132326Z 18007KT 19/04 A3022 RMK A01 T01920041  RH  037%=      5-min Rain = 0
KLO1 132327Z 18009KT 19/04 A3022 RMK A01 T01920041  RH  037%=      5-min Rain = 0
KLO1 132328Z 18011KT 19/04 A3022 RMK A01 T01920040  RH  037%=      5-min Rain = 0
KLO1 132329Z 18011KT 19/04 A3022 RMK A01 T01920039  RH  036%=      5-min Rain = 0
KLO1 132330Z 19010KT 19/04 A3022 RMK A01 T01920039  RH  036%=      5-min Rain = 0
KLO1 132331Z 18010KT 19/04 A3022 RMK A01 T01920039  RH  036%=      5-min Rain = 0
KLO1 132332Z 18010KT 19/04 A3022 RMK A01 T01920039  RH  036%=      5-min Rain = 0
KLO1 132333Z 18011KT 19/04 A3022 RMK A01 T01910039  RH  036%=      5-min Rain = 0
KLO1 132334Z 18010KT 19/04 A3022 RMK A01 T01910039  RH  036%=      5-min Rain = 0
KLO1 132335Z 18010KT 19/04 A3022 RMK A01 T01910039  RH  036%=      5-min Rain = 0
KLO1 132336Z 18008KT 19/04 A3022 RMK A01 T01910039  RH  036%=      5-min Rain = 0
KLO1 132337Z 18009KT 19/04 A3022 RMK A01 T01910039  RH  036%=      5-min Rain = 0
KLO1 132338Z 18009KT 19/04 A3022 RMK A01 T01910039  RH  037%=      5-min Rain = 0
KLO1 132339Z 18008KT 19/04 A3022 RMK A01 T01910039  RH  037%=      5-min Rain = 0
KLO1 132340Z 18008KT 19/04 A3022 RMK A01 T01910039  RH  037%=      5-min Rain = 0
KLO1 132341Z 18010KT 19/04 A3022 RMK A01 T01900038  RH  036%=      5-min Rain = 0
KLO1 132342Z 18009KT 19/04 A3022 RMK A01 T01900037  RH  036%=      5-min Rain = 0
KLO1 132343Z 18010KT 19/04 A3022 RMK A01 T01910038  RH  036%=      5-min Rain = 0
KLO1 132344Z 18009KT 19/04 A3022 RMK A01 T01910038  RH  036%=      5-min Rain = 0
KLO1 132345Z 18010KT 19/04 A3022 RMK A01 T01910037  RH  036%=      5-min Rain = 0
KLO1 132346Z 18010KT 19/04 A3022 RMK A01 T01910038  RH  036%=      5-min Rain = 0
KLO1 132347Z 18007KT 19/04 A3022 RMK A01 T01910037  RH  036%=      5-min Rain = 0
KLO1 132348Z 19008KT 19/04 A3022 RMK A01 T01910037  RH  036%=      5-min Rain = 0
KLO1 132349Z 19010KT 19/04 A3022 RMK A01 T01900037  RH  036%=      5-min Rain = 0
KLO1 132350Z 19008KT 19/04 A3022 RMK A01 T01900037  RH  036%=      5-min Rain = 0
KLO1 132351Z 19008KT 19/04 A3022 RMK A01 T01900037  RH  036%=      5-min Rain = 0
KLO1 132352Z 18007KT 19/04 A3022 RMK A01 T01890036  RH  036%=      5-min Rain = 0
KLO1 132353Z 18007KT 19/04 A3022 RMK A01 T01890036  RH  036%=      5-min Rain = 0
KLO1 132354Z 18009KT 19/04 A3022 RMK A01 T01890036  RH  036%=      5-min Rain = 0
KLO1 132355Z 18009KT 19/04 A3022 RMK A01 T01890035  RH  036%=      5-min Rain = 0
KLO1 132356Z 18009KT 19/04 A3022 RMK A01 T01890035  RH  036%=      5-min Rain = 0
KLO1 132357Z 19009KT 19/04 A3022 RMK A01 T01890035  RH  036%=      5-min Rain = 0
KLO1 132358Z 19009KT 19/04 A3022 RMK A01 T01890035  RH  036%=      5-min Rain = 0
KLO1 132359Z 18009KT 19/04 A3022 RMK A01 T01890035  RH  036%=      5-min Rain = 0
KLO1 140000Z 18010KT 19/04 A3022 RMK A01 T01880035  RH  036%=      5-min Rain = 0
KLO1 140001Z 18010KT 19/04 A3022 RMK A01 T01880035  RH  036%=      5-min Rain = 0
KLO1 140002Z 18009KT 19/04 A3022 RMK A01 T01880036  RH  036%=      5-min Rain = 0
KLO1 140003Z 17009KT 19/04 A3022 RMK A01 T01880036  RH  036%=      5-min Rain = 0
KLO1 140004Z 17008KT 19/04 A3022 RMK A01 T01870035  RH  036%=      5-min Rain = 0
KLO1 140005Z 17007KT 19/04 A3022 RMK A01 T01870035  RH  037%=      5-min Rain = 0
KLO1 140011Z 17009KT 18/05 A3023 RMK A01 T01820046  RH  041%=      5-min Rain = 0
KLO1 140012Z 17010KT 18/05 A3023 RMK A01 T01820047  RH  041%=      5-min Rain = 0
KLO1 140013Z 17010KT 18/05 A3023 RMK A01 T01820049  RH  041%=      5-min Rain = 0
KLO1 140014Z 17010KT 18/05 A3023 RMK A01 T01810050  RH  042%=      5-min Rain = 0
KLO1 140015Z 17010KT 18/05 A3023 RMK A01 T01800051  RH  042%=      5-min Rain = 0
KLO1 140016Z 17010KT 18/05 A3023 RMK A01 T01800051  RH  043%=      5-min Rain = 0
KLO1 140017Z 17010KT 18/05 A3022 RMK A01 T01790052  RH  043%=      5-min Rain = 0
KLO1 140018Z 16010KT 18/05 A3023 RMK A01 T01790052  RH  043%=      5-min Rain = 0
KLO1 140019Z 17011KT 18/05 A3023 RMK A01 T01780052  RH  043%=      5-min Rain = 0
KLO1 140020Z 17010KT 18/05 A3023 RMK A01 T01780052  RH  044%=      5-min Rain = 0
KLO1 140021Z 17010KT 18/05 A3023 RMK A01 T01770052  RH  044%=      5-min Rain = 0
KLO1 140022Z 16009KT 18/05 A3023 RMK A01 T01770052  RH  044%=      5-min Rain = 0
KLO1 140023Z 16010KT 18/05 A3023 RMK A01 T01760052  RH  044%=      5-min Rain = 0
KLO1 140024Z 16010KT 18/05 A3023 RMK A01 T01750052  RH  044%=      5-min Rain = 0
KLO1 140025Z 16010KT 17/05 A3023 RMK A01 T01740052  RH  044%=      5-min Rain = 0
KLO1 140026Z 16010KT 17/05 A3023 RMK A01 T01740052  RH  045%=      5-min Rain = 0
KLO1 140027Z 16010KT 17/05 A3023 RMK A01 T01730052  RH  045%=      5-min Rain = 0
KLO1 140028Z 16009KT 17/05 A3022 RMK A01 T01720052  RH  045%=      5-min Rain = 0
KLO1 140029Z 17010KT 17/05 A3022 RMK A01 T01720052  RH  045%=      5-min Rain = 0
KLO1 140030Z 17009KT 17/05 A3022 RMK A01 T01710052  RH  045%=      5-min Rain = 0
KLO1 140031Z 17009KT 17/05 A3022 RMK A01 T01700052  RH  046%=      5-min Rain = 0
KLO1 140032Z 16010KT 17/05 A3023 RMK A01 T01700052  RH  046%=      5-min Rain = 0
KLO1 140033Z 17009KT 17/05 A3023 RMK A01 T01700052  RH  046%=      5-min Rain = 0
KLO1 140034Z 16010KT 17/05 A3023 RMK A01 T01690052  RH  046%=      5-min Rain = 0
KLO1 140035Z 17010KT 17/05 A3022 RMK A01 T01690052  RH  046%=      5-min Rain = 0
KLO1 140036Z 16009KT 17/05 A3023 RMK A01 T01690052  RH  046%=      5-min Rain = 0
KLO1 140037Z 17009KT 17/05 A3023 RMK A01 T01690053  RH  046%=      5-min Rain = 0
KLO1 140038Z 16009KT 17/05 A3023 RMK A01 T01680052  RH  046%=      5-min Rain = 0
KLO1 140039Z 16009KT 17/05 A3023 RMK A01 T01670052  RH  046%=      5-min Rain = 0
KLO1 140040Z 16010KT 17/05 A3023 RMK A01 T01670052  RH  047%=      5-min Rain = 0
KLO1 140041Z 16010KT 17/05 A3023 RMK A01 T01660053  RH  047%=      5-min Rain = 0
KLO1 140042Z 16010KT 17/05 A3023 RMK A01 T01650052  RH  047%=      5-min Rain = 0
KLO1 140043Z 16010KT 17/05 A3023 RMK A01 T01650052  RH  047%=      5-min Rain = 0
KLO1 140044Z 16010KT 16/05 A3023 RMK A01 T01640052  RH  047%=      5-min Rain = 0
KLO1 140045Z 16009KT 16/05 A3023 RMK A01 T01640052  RH  048%=      5-min Rain = 0
KLO1 140046Z 16009KT 16/05 A3023 RMK A01 T01630052  RH  048%=      5-min Rain = 0
KLO1 140047Z 16009KT 16/05 A3023 RMK A01 T01620052  RH  048%=      5-min Rain = 0
KLO1 140048Z 16009KT 16/05 A3023 RMK A01 T01610052  RH  048%=      5-min Rain = 0
KLO1 140049Z 17008KT 16/05 A3023 RMK A01 T01600052  RH  048%=      5-min Rain = 0
KLO1 140050Z 17009KT 16/05 A3023 RMK A01 T01590051  RH  049%=      5-min Rain = 0
KLO1 140051Z 16009KT 16/05 A3023 RMK A01 T01590052  RH  049%=      5-min Rain = 0
KLO1 140052Z 16008KT 16/05 A3024 RMK A01 T01580051  RH  049%=      5-min Rain = 0
KLO1 140053Z 16008KT 16/05 A3024 RMK A01 T01570051  RH  049%=      5-min Rain = 0
KLO1 140054Z 17008KT 16/05 A3024 RMK A01 T01570051  RH  049%=      5-min Rain = 0
KLO1 140055Z 17009KT 16/05 A3024 RMK A01 T01570052  RH  049%=      5-min Rain = 0
KLO1 140056Z 16009KT 16/05 A3024 RMK A01 T01570052  RH  049%=      5-min Rain = 0
KLO1 140057Z 16008KT 16/05 A3024 RMK A01 T01570052  RH  049%=      5-min Rain = 0
KLO1 140058Z 16008KT 16/05 A3024 RMK A01 T01570052  RH  050%=      5-min Rain = 0
KLO1 140059Z 16008KT 16/05 A3024 RMK A01 T01560052  RH  050%=      5-min Rain = 0
KLO1 140100Z 16008KT 16/05 A3024 RMK A01 T01560051  RH  050%=      5-min Rain = 0
KLO1 140101Z 16008KT 16/05 A3024 RMK A01 T01550051  RH  050%=      5-min Rain = 0
KLO1 140102Z 16008KT 15/05 A3024 RMK A01 T01540051  RH  050%=      5-min Rain = 0
KLO1 140103Z 16007KT 15/05 A3024 RMK A01 T01530051  RH  050%=      5-min Rain = 0
KLO1 140104Z 16007KT 15/05 A3024 RMK A01 T01520050  RH  051%=      5-min Rain = 0
KLO1 140105Z 16007KT 15/05 A3024 RMK A01 T01510050  RH  051%=      5-min Rain = 0
KLO1 140106Z 16008KT 15/05 A3024 RMK A01 T01500050  RH  051%=      5-min Rain = 0
KLO1 140107Z 16008KT 15/05 A3024 RMK A01 T01500051  RH  052%=      5-min Rain = 0
KLO1 140108Z 16009KT 15/05 A3024 RMK A01 T01490051  RH  052%=      5-min Rain = 0
KLO1 140109Z 16008KT 15/05 A3024 RMK A01 T01500052  RH  052%=      5-min Rain = 0
KLO1 140110Z 16008KT 15/05 A3024 RMK A01 T01500052  RH  052%=      5-min Rain = 0
KLO1 140111Z 16009KT 15/05 A3024 RMK A01 T01500052  RH  052%=      5-min Rain = 0
KLO1 140112Z 16009KT 15/05 A3024 RMK A01 T01510053  RH  052%=      5-min Rain = 0
KLO1 140113Z 16009KT 15/05 A3024 RMK A01 T01510053  RH  052%=      5-min Rain = 0
KLO1 140114Z 16009KT 15/05 A3024 RMK A01 T01510053  RH  052%=      5-min Rain = 0
KLO1 140115Z 16009KT 15/05 A3024 RMK A01 T01500053  RH  052%=      5-min Rain = 0
KLO1 140116Z 16009KT 15/05 A3024 RMK A01 T01500053  RH  052%=      5-min Rain = 0
KLO1 140117Z 16009KT 15/05 A3024 RMK A01 T01490053  RH  053%=      5-min Rain = 0
KLO1 140118Z 16009KT 15/05 A3024 RMK A01 T01480053  RH  053%=      5-min Rain = 0
KLO1 140119Z 16009KT 15/05 A3024 RMK A01 T01470053  RH  053%=      5-min Rain = 0
KLO1 140120Z 16009KT 15/05 A3024 RMK A01 T01470053  RH  053%=      5-min Rain = 0
KLO1 140121Z 16009KT 15/05 A3024 RMK A01 T01470053  RH  053%=      5-min Rain = 0
KLO1 140122Z 16008KT 15/05 A3024 RMK A01 T01460053  RH  053%=      5-min Rain = 0
KLO1 140123Z 16007KT 15/05 A3024 RMK A01 T01450052  RH  054%=      5-min Rain = 0
KLO1 140124Z 16007KT 14/05 A3024 RMK A01 T01440052  RH  054%=      5-min Rain = 0
KLO1 140125Z 16007KT 14/05 A3024 RMK A01 T01440052  RH  054%=      5-min Rain = 0
KLO1 140126Z 16007KT 14/05 A3024 RMK A01 T01430052  RH  054%=      5-min Rain = 0
KLO1 140127Z 16007KT 14/05 A3024 RMK A01 T01420052  RH  054%=      5-min Rain = 0
KLO1 140128Z 16007KT 14/05 A3024 RMK A01 T01410051  RH  055%=      5-min Rain = 0
KLO1 140129Z 16006KT 14/05 A3024 RMK A01 T01410051  RH  055%=      5-min Rain = 0
KLO1 140130Z 16006KT 14/05 A3024 RMK A01 T01400051  RH  055%=      5-min Rain = 0
KLO1 140131Z 16006KT 14/05 A3024 RMK A01 T01390050  RH  055%=      5-min Rain = 0
KLO1 140132Z 16006KT 14/05 A3024 RMK A01 T01380050  RH  055%=      5-min Rain = 0
KLO1 140133Z 16006KT 14/05 A3024 RMK A01 T01380050  RH  055%=      5-min Rain = 0
KLO1 140134Z 16006KT 14/05 A3024 RMK A01 T01360049  RH  056%=      5-min Rain = 0
KLO1 140135Z 16007KT 14/05 A3025 RMK A01 T01350049  RH  056%=      5-min Rain = 0
KLO1 140136Z 16007KT 14/05 A3025 RMK A01 T01350049  RH  056%=      5-min Rain = 0
KLO1 140137Z 16007KT 13/05 A3025 RMK A01 T01340049  RH  056%=      5-min Rain = 0
KLO1 140138Z 16007KT 13/05 A3025 RMK A01 T01340048  RH  056%=      5-min Rain = 0
KLO1 140139Z 16007KT 13/05 A3025 RMK A01 T01330049  RH  056%=      5-min Rain = 0
KLO1 140140Z 16007KT 13/05 A3025 RMK A01 T01330048  RH  057%=      5-min Rain = 0
KLO1 140141Z 16007KT 13/05 A3024 RMK A01 T01330048  RH  057%=      5-min Rain = 0
KLO1 140142Z 16007KT 13/05 A3024 RMK A01 T01330049  RH  057%=      5-min Rain = 0
KLO1 140143Z 16007KT 13/05 A3024 RMK A01 T01330049  RH  057%=      5-min Rain = 0
KLO1 140144Z 16007KT 13/05 A3024 RMK A01 T01330049  RH  057%=      5-min Rain = 0
KLO1 140145Z 16007KT 13/05 A3024 RMK A01 T01320049  RH  057%=      5-min Rain = 0
KLO1 140146Z 16007KT 13/05 A3025 RMK A01 T01310049  RH  057%=      5-min Rain = 0
KLO1 140147Z 16007KT 13/05 A3025 RMK A01 T01310049  RH  057%=      5-min Rain = 0
KLO1 140148Z 16007KT 13/05 A3025 RMK A01 T01310049  RH  057%=      5-min Rain = 0
KLO1 140149Z 16008KT 13/05 A3025 RMK A01 T01310049  RH  058%=      5-min Rain = 0
KLO1 140150Z 16008KT 13/05 A3025 RMK A01 T01300048  RH  058%=      5-min Rain = 0
KLO1 140151Z 16007KT 13/05 A3025 RMK A01 T01300048  RH  058%=      5-min Rain = 0
KLO1 140152Z 16007KT 13/05 A3025 RMK A01 T01300048  RH  058%=      5-min Rain = 0
KLO1 140153Z 16007KT 13/05 A3025 RMK A01 T01290048  RH  058%=      5-min Rain = 0
KLO1 140154Z 16007KT 13/05 A3025 RMK A01 T01290048  RH  058%=      5-min Rain = 0
KLO1 140155Z 16008KT 13/05 A3025 RMK A01 T01280047  RH  058%=      5-min Rain = 0
KLO1 140156Z 16008KT 13/05 A3025 RMK A01 T01280048  RH  058%=      5-min Rain = 0
KLO1 140157Z 16008KT 13/05 A3025 RMK A01 T01280048  RH  058%=      5-min Rain = 0
KLO1 140158Z 16008KT 13/05 A3025 RMK A01 T01280048  RH  058%=      5-min Rain = 0
KLO1 140159Z 16008KT 13/05 A3025 RMK A01 T01280048  RH  058%=      5-min Rain = 0
KLO1 140200Z 16008KT 13/05 A3025 RMK A01 T01280049  RH  058%=      5-min Rain = 0
KLO1 140201Z 16008KT 13/05 A3025 RMK A01 T01290049  RH  059%=      5-min Rain = 0
KLO1 140202Z 16008KT 13/05 A3025 RMK A01 T01290049  RH  058%=      5-min Rain = 0
KLO1 140203Z 16007KT 13/05 A3025 RMK A01 T01290050  RH  058%=      5-min Rain = 0
KLO1 140204Z 16007KT 13/05 A3025 RMK A01 T01300050  RH  058%=      5-min Rain = 0
KLO1 140205Z 16007KT 13/05 A3026 RMK A01 T01300050  RH  058%=      5-min Rain = 0
KLO1 140206Z 16007KT 13/05 A3026 RMK A01 T01290050  RH  058%=      5-min Rain = 0
KLO1 140207Z 16007KT 13/05 A3026 RMK A01 T01290049  RH  058%=      5-min Rain = 0
KLO1 140208Z 16007KT 13/05 A3026 RMK A01 T01290050  RH  059%=      5-min Rain = 0
KLO1 140209Z 16007KT 13/05 A3026 RMK A01 T01280049  RH  059%=      5-min Rain = 0
KLO1 140210Z 16007KT 13/05 A3026 RMK A01 T01280049  RH  059%=      5-min Rain = 0
KLO1 140211Z 16007KT 13/05 A3026 RMK A01 T01270049  RH  059%=      5-min Rain = 0
KLO1 140212Z 15007KT 13/05 A3026 RMK A01 T01260049  RH  059%=      5-min Rain = 0
KLO1 140213Z 15007KT 13/05 A3025 RMK A01 T01260049  RH  059%=      5-min Rain = 0
KLO1 140214Z 15007KT 13/05 A3025 RMK A01 T01250048  RH  060%=      5-min Rain = 0
KLO1 140215Z 15006KT 12/05 A3025 RMK A01 T01240048  RH  060%=      5-min Rain = 0
KLO1 140216Z 15006KT 12/05 A3025 RMK A01 T01230048  RH  060%=      5-min Rain = 0
KLO1 140217Z 15006KT 12/05 A3025 RMK A01 T01220047  RH  060%=      5-min Rain = 0
KLO1 140218Z 15006KT 12/05 A3025 RMK A01 T01220047  RH  060%=      5-min Rain = 0
KLO1 140219Z 16007KT 12/05 A3026 RMK A01 T01210047  RH  061%=      5-min Rain = 0
KLO1 140220Z 16007KT 12/05 A3026 RMK A01 T01210048  RH  061%=      5-min Rain = 0
KLO1 140221Z 16008KT 12/05 A3026 RMK A01 T01210048  RH  061%=      5-min Rain = 0
KLO1 140222Z 16008KT 12/05 A3026 RMK A01 T01210048  RH  061%=      5-min Rain = 0
KLO1 140223Z 16008KT 12/05 A3025 RMK A01 T01210049  RH  061%=      5-min Rain = 0
KLO1 140224Z 16009KT 12/05 A3025 RMK A01 T01210050  RH  062%=      5-min Rain = 0
KLO1 140225Z 16008KT 12/05 A3025 RMK A01 T01210050  RH  062%=      5-min Rain = 0
KLO1 140226Z 16008KT 12/05 A3025 RMK A01 T01220052  RH  062%=      5-min Rain = 0
KLO1 140227Z 16008KT 12/05 A3025 RMK A01 T01230052  RH  062%=      5-min Rain = 0
KLO1 140228Z 15008KT 12/05 A3025 RMK A01 T01230053  RH  062%=      5-min Rain = 0
KLO1 140229Z 15007KT 12/05 A3025 RMK A01 T01230053  RH  062%=      5-min Rain = 0
KLO1 140230Z 15008KT 12/05 A3025 RMK A01 T01230053  RH  062%=      5-min Rain = 0
KLO1 140231Z 16008KT 12/05 A3026 RMK A01 T01230053  RH  062%=      5-min Rain = 0
KLO1 140232Z 16008KT 12/05 A3026 RMK A01 T01230054  RH  063%=      5-min Rain = 0
KLO1 140233Z 16008KT 12/05 A3026 RMK A01 T01230054  RH  063%=      5-min Rain = 0
KLO1 140234Z 16008KT 12/05 A3026 RMK A01 T01220054  RH  063%=      5-min Rain = 0
KLO1 140235Z 16008KT 12/05 A3026 RMK A01 T01220054  RH  063%=      5-min Rain = 0
KLO1 140236Z 16008KT 12/06 A3026 RMK A01 T01220055  RH  064%=      5-min Rain = 0
KLO1 140237Z 16008KT 12/06 A3026 RMK A01 T01220055  RH  064%=      5-min Rain = 0
KLO1 140238Z 16008KT 12/06 A3026 RMK A01 T01220055  RH  064%=      5-min Rain = 0
KLO1 140239Z 16008KT 12/06 A3026 RMK A01 T01220055  RH  064%=      5-min Rain = 0
KLO1 140240Z 16008KT 12/06 A3026 RMK A01 T01210055  RH  064%=      5-min Rain = 0
KLO1 140241Z 16008KT 12/06 A3026 RMK A01 T01210055  RH  064%=      5-min Rain = 0
KLO1 140242Z 16008KT 12/06 A3026 RMK A01 T01200055  RH  064%=      5-min Rain = 0
KLO1 140243Z 16008KT 12/06 A3026 RMK A01 T01200055  RH  064%=      5-min Rain = 0
KLO1 140244Z 16008KT 12/06 A3026 RMK A01 T01190055  RH  065%=      5-min Rain = 0
KLO1 140245Z 16007KT 12/06 A3026 RMK A01 T01190055  RH  065%=      5-min Rain = 0
KLO1 140246Z 16007KT 12/06 A3026 RMK A01 T01180055  RH  065%=      5-min Rain = 0
KLO1 140247Z 15007KT 12/05 A3026 RMK A01 T01170054  RH  065%=      5-min Rain = 0
KLO1 140248Z 15007KT 12/05 A3026 RMK A01 T01160054  RH  065%=      5-min Rain = 0
KLO1 140249Z 15008KT 12/05 A3026 RMK A01 T01150053  RH  066%=      5-min Rain = 0
KLO1 140250Z 15008KT 11/05 A3026 RMK A01 T01140053  RH  066%=      5-min Rain = 0
KLO1 140251Z 15008KT 11/05 A3026 RMK A01 T01140053  RH  066%=      5-min Rain = 0
KLO1 140252Z 15008KT 11/05 A3026 RMK A01 T01130053  RH  067%=      5-min Rain = 0
KLO1 140253Z 15008KT 11/05 A3026 RMK A01 T01130054  RH  067%=      5-min Rain = 0
KLO1 140254Z 15008KT 11/05 A3026 RMK A01 T01130054  RH  067%=      5-min Rain = 0
KLO1 140255Z 15008KT 11/06 A3026 RMK A01 T01140055  RH  067%=      5-min Rain = 0
KLO1 140256Z 15008KT 11/06 A3026 RMK A01 T01140055  RH  067%=      5-min Rain = 0
KLO1 140257Z 15008KT 11/06 A3026 RMK A01 T01140055  RH  067%=      5-min Rain = 0
KLO1 140258Z 15008KT 11/06 A3026 RMK A01 T01140055  RH  067%=      5-min Rain = 0
KLO1 140259Z 15007KT 11/06 A3026 RMK A01 T01140055  RH  067%=      5-min Rain = 0
KLO1 140300Z 15007KT 11/06 A3026 RMK A01 T01140055  RH  067%=      5-min Rain = 0
KLO1 140301Z 15007KT 11/06 A3026 RMK A01 T01140055  RH  067%=      5-min Rain = 0
KLO1 140302Z 15007KT 11/06 A3026 RMK A01 T01130055  RH  067%=      5-min Rain = 0
KLO1 140303Z 15007KT 11/06 A3026 RMK A01 T01130055  RH  068%=      5-min Rain = 0
KLO1 140304Z 15007KT 11/06 A3026 RMK A01 T01120055  RH  068%=      5-min Rain = 0
KLO1 140305Z 15007KT 11/05 A3026 RMK A01 T01120054  RH  068%=      5-min Rain = 0
KLO1 140306Z 15008KT 11/05 A3027 RMK A01 T01110054  RH  068%=      5-min Rain = 0
KLO1 140307Z 15008KT 11/06 A3027 RMK A01 T01110055  RH  068%=      5-min Rain = 0
KLO1 140308Z 15008KT 11/06 A3027 RMK A01 T01100055  RH  069%=      5-min Rain = 0
KLO1 140309Z 15008KT 11/06 A3027 RMK A01 T01100055  RH  069%=      5-min Rain = 0
KLO1 140310Z 15008KT 11/06 A3026 RMK A01 T01100055  RH  069%=      5-min Rain = 0
KLO1 140311Z 15009KT 11/06 A3026 RMK A01 T01090055  RH  069%=      5-min Rain = 0
KLO1 140312Z 15009KT 11/06 A3026 RMK A01 T01090056  RH  070%=      5-min Rain = 0
KLO1 140313Z 15009KT 11/06 A3026 RMK A01 T01090056  RH  070%=      5-min Rain = 0
KLO1 140314Z 15009KT 11/06 A3026 RMK A01 T01090057  RH  070%=      5-min Rain = 0
KLO1 140315Z 15009KT 11/06 A3026 RMK A01 T01090057  RH  070%=      5-min Rain = 0
KLO1 140316Z 16008KT 11/06 A3026 RMK A01 T01090057  RH  070%=      5-min Rain = 0
KLO1 140317Z 16008KT 11/06 A3026 RMK A01 T01090057  RH  070%=      5-min Rain = 0
KLO1 140318Z 15008KT 11/06 A3026 RMK A01 T01080056  RH  070%=      5-min Rain = 0
KLO1 140319Z 15008KT 11/06 A3026 RMK A01 T01080056  RH  070%=      5-min Rain = 0
KLO1 140320Z 15007KT 11/06 A3026 RMK A01 T01070056  RH  070%=      5-min Rain = 0
KLO1 140321Z 15008KT 11/06 A3026 RMK A01 T01070055  RH  071%=      5-min Rain = 0
KLO1 140322Z 15007KT 11/06 A3026 RMK A01 T01060055  RH  071%=      5-min Rain = 0
KLO1 140323Z 14008KT 11/06 A3026 RMK A01 T01050055  RH  071%=      5-min Rain = 0
KLO1 140324Z 14007KT 11/06 A3026 RMK A01 T01050055  RH  071%=      5-min Rain = 0
KLO1 140325Z 14007KT 11/06 A3026 RMK A01 T01050055  RH  071%=      5-min Rain = 0
KLO1 140326Z 15008KT 11/06 A3026 RMK A01 T01050056  RH  072%=      5-min Rain = 0
KLO1 140327Z 15008KT 11/06 A3026 RMK A01 T01050056  RH  072%=      5-min Rain = 0
KLO1 140328Z 15008KT 11/06 A3026 RMK A01 T01050056  RH  072%=      5-min Rain = 0
KLO1 140329Z 15007KT 11/06 A3026 RMK A01 T01060057  RH  072%=      5-min Rain = 0
KLO1 140330Z 15007KT 11/06 A3026 RMK A01 T01070057  RH  072%=      5-min Rain = 0
KLO1 140331Z 15007KT 11/06 A3026 RMK A01 T01070058  RH  071%=      5-min Rain = 0
KLO1 140332Z 15008KT 11/06 A3026 RMK A01 T01080058  RH  071%=      5-min Rain = 0
KLO1 140333Z 15008KT 11/06 A3026 RMK A01 T01080058  RH  071%=      5-min Rain = 0
KLO1 140334Z 15007KT 11/06 A3026 RMK A01 T01080058  RH  071%=      5-min Rain = 0
KLO1 140335Z 15007KT 11/06 A3026 RMK A01 T01080058  RH  071%=      5-min Rain = 0
KLO1 140336Z 15007KT 11/06 A3026 RMK A01 T01080058  RH  071%=      5-min Rain = 0
KLO1 140337Z 15007KT 11/06 A3026 RMK A01 T01080058  RH  071%=      5-min Rain = 0
KLO1 140338Z 15007KT 11/06 A3026 RMK A01 T01090058  RH  071%=      5-min Rain = 0
KLO1 140339Z 15007KT 11/06 A3026 RMK A01 T01090058  RH  071%=      5-min Rain = 0
KLO1 140340Z 16007KT 11/06 A3027 RMK A01 T01090058  RH  071%=      5-min Rain = 0
KLO1 140341Z 15007KT 11/06 A3027 RMK A01 T01090058  RH  071%=      5-min Rain = 0
KLO1 140342Z 16006KT 11/06 A3027 RMK A01 T01090058  RH  071%=      5-min Rain = 0
KLO1 140343Z 16006KT 11/06 A3027 RMK A01 T01090058  RH  071%=      5-min Rain = 0
KLO1 140344Z 16006KT 11/06 A3027 RMK A01 T01090058  RH  071%=      5-min Rain = 0
KLO1 140345Z 16006KT 11/06 A3027 RMK A01 T01080057  RH  071%=      5-min Rain = 0
KLO1 140346Z 16006KT 11/06 A3027 RMK A01 T01080057  RH  071%=      5-min Rain = 0
KLO1 140347Z 16006KT 11/06 A3027 RMK A01 T01070057  RH  071%=      5-min Rain = 0
KLO1 140348Z 16006KT 11/06 A3027 RMK A01 T01070057  RH  071%=      5-min Rain = 0
KLO1 140349Z 16006KT 11/06 A3027 RMK A01 T01060057  RH  072%=      5-min Rain = 0
KLO1 140350Z 16006KT 11/06 A3027 RMK A01 T01060057  RH  072%=      5-min Rain = 0
KLO1 140351Z 16005KT 11/06 A3027 RMK A01 T01050057  RH  072%=      5-min Rain = 0
KLO1 140352Z 16005KT 11/06 A3027 RMK A01 T01050057  RH  072%=      5-min Rain = 0
KLO1 140353Z 16005KT 10/06 A3027 RMK A01 T01040056  RH  072%=      5-min Rain = 0
KLO1 140354Z 16005KT 10/06 A3027 RMK A01 T01040056  RH  072%=      5-min Rain = 0
KLO1 140355Z 16004KT 10/06 A3027 RMK A01 T01040056  RH  072%=      5-min Rain = 0
KLO1 140356Z 16004KT 10/06 A3027 RMK A01 T01030056  RH  072%=      5-min Rain = 0
KLO1 140357Z 16004KT 10/06 A3027 RMK A01 T01030056  RH  073%=      5-min Rain = 0
KLO1 140358Z 16004KT 10/06 A3027 RMK A01 T01030056  RH  073%=      5-min Rain = 0
KLO1 140359Z 15005KT 10/06 A3026 RMK A01 T01020055  RH  073%=      5-min Rain = 0
KLO1 140400Z 15005KT 10/06 A3026 RMK A01 T01020055  RH  073%=      5-min Rain = 0
KLO1 140401Z 15005KT 10/06 A3026 RMK A01 T01020055  RH  073%=      5-min Rain = 0
KLO1 140402Z 15004KT 10/05 A3026 RMK A01 T01010054  RH  073%=      5-min Rain = 0
KLO1 140403Z 15004KT 10/05 A3026 RMK A01 T01000054  RH  073%=      5-min Rain = 0
KLO1 140404Z 15004KT 10/05 A3026 RMK A01 T00990054  RH  074%=      5-min Rain = 0
KLO1 140405Z 15004KT 10/05 A3026 RMK A01 T00990054  RH  073%=      5-min Rain = 0
KLO1 140406Z 15004KT 10/05 A3026 RMK A01 T00980053  RH  074%=      5-min Rain = 0
KLO1 140407Z 15004KT 10/05 A3026 RMK A01 T00970053  RH  074%=      5-min Rain = 0
KLO1 140408Z 15005KT 10/05 A3026 RMK A01 T00970053  RH  074%=      5-min Rain = 0
KLO1 140409Z 15005KT 10/05 A3026 RMK A01 T00960052  RH  074%=      5-min Rain = 0
KLO1 140410Z 15005KT 10/05 A3026 RMK A01 T00960053  RH  074%=      5-min Rain = 0
KLO1 140411Z 15005KT 10/05 A3026 RMK A01 T00950052  RH  074%=      5-min Rain = 0
KLO1 140412Z 15005KT 10/05 A3026 RMK A01 T00950052  RH  075%=      5-min Rain = 0
KLO1 140413Z 15005KT 09/05 A3026 RMK A01 T00940051  RH  075%=      5-min Rain = 0
KLO1 140414Z 16005KT 09/05 A3026 RMK A01 T00940051  RH  075%=      5-min Rain = 0
KLO1 140415Z 16005KT 09/05 A3026 RMK A01 T00930051  RH  075%=      5-min Rain = 0
KLO1 140416Z 16005KT 09/05 A3026 RMK A01 T00920050  RH  075%=      5-min Rain = 0
KLO1 140417Z 16005KT 09/05 A3027 RMK A01 T00920050  RH  075%=      5-min Rain = 0
KLO1 140418Z 16005KT 09/05 A3027 RMK A01 T00910050  RH  075%=      5-min Rain = 0
KLO1 140419Z 16005KT 09/05 A3027 RMK A01 T00910050  RH  075%=      5-min Rain = 0
KLO1 140420Z 16005KT 09/05 A3027 RMK A01 T00900049  RH  076%=      5-min Rain = 0
KLO1 140421Z 16005KT 09/05 A3027 RMK A01 T00900049  RH  076%=      5-min Rain = 0
KLO1 140422Z 17005KT 09/05 A3027 RMK A01 T00890049  RH  076%=      5-min Rain = 0
KLO1 140423Z 17006KT 09/05 A3027 RMK A01 T00890049  RH  076%=      5-min Rain = 0
KLO1 140424Z 17006KT 09/05 A3027 RMK A01 T00890049  RH  076%=      5-min Rain = 0
KLO1 140425Z 16006KT 09/05 A3027 RMK A01 T00880049  RH  076%=      5-min Rain = 0
KLO1 140426Z 16006KT 09/05 A3027 RMK A01 T00880049  RH  076%=      5-min Rain = 0
KLO1 140427Z 16006KT 09/05 A3027 RMK A01 T00880048  RH  076%=      5-min Rain = 0
KLO1 140428Z 17006KT 09/05 A3027 RMK A01 T00880048  RH  076%=      5-min Rain = 0
KLO1 140429Z 17006KT 09/05 A3027 RMK A01 T00870047  RH  076%=      5-min Rain = 0
KLO1 140430Z 17006KT 09/05 A3027 RMK A01 T00870048  RH  076%=      5-min Rain = 0
KLO1 140431Z 17006KT 09/05 A3027 RMK A01 T00870048  RH  076%=      5-min Rain = 0
KLO1 140432Z 16007KT 09/05 A3027 RMK A01 T00870048  RH  077%=      5-min Rain = 0
KLO1 140433Z 16007KT 09/05 A3026 RMK A01 T00870048  RH  076%=      5-min Rain = 0
KLO1 140434Z 16007KT 09/05 A3026 RMK A01 T00870047  RH  076%=      5-min Rain = 0
KLO1 140435Z 16007KT 09/05 A3026 RMK A01 T00870048  RH  076%=      5-min Rain = 0
KLO1 140436Z 16007KT 09/05 A3026 RMK A01 T00870047  RH  076%=      5-min Rain = 0
KLO1 140437Z 16007KT 09/05 A3026 RMK A01 T00860047  RH  076%=      5-min Rain = 0
KLO1 140438Z 16007KT 09/05 A3026 RMK A01 T00860047  RH  076%=      5-min Rain = 0
KLO1 140439Z 16007KT 09/05 A3026 RMK A01 T00860047  RH  077%=      5-min Rain = 0
KLO1 140440Z 16007KT 09/05 A3026 RMK A01 T00860048  RH  077%=      5-min Rain = 0
KLO1 140441Z 16007KT 09/05 A3026 RMK A01 T00850048  RH  077%=      5-min Rain = 0
KLO1 140442Z 16007KT 09/05 A3026 RMK A01 T00850047  RH  077%=      5-min Rain = 0
KLO1 140443Z 16006KT 09/05 A3026 RMK A01 T00850047  RH  077%=      5-min Rain = 0
KLO1 140444Z 16006KT 09/05 A3026 RMK A01 T00850047  RH  077%=      5-min Rain = 0
KLO1 140445Z 16006KT 08/05 A3026 RMK A01 T00840047  RH  077%=      5-min Rain = 0
KLO1 140446Z 16006KT 09/05 A3026 RMK A01 T00850047  RH  077%=      5-min Rain = 0
KLO1 140447Z 16006KT 08/05 A3026 RMK A01 T00840046  RH  077%=      5-min Rain = 0
KLO1 140448Z 17006KT 08/05 A3026 RMK A01 T00840047  RH  077%=      5-min Rain = 0
KLO1 140449Z 17006KT 08/05 A3026 RMK A01 T00840047  RH  077%=      5-min Rain = 0
KLO1 140450Z 16006KT 08/05 A3026 RMK A01 T00840047  RH  077%=      5-min Rain = 0
KLO1 140451Z 16006KT 08/05 A3026 RMK A01 T00840046  RH  077%=      5-min Rain = 0
KLO1 140452Z 16006KT 08/05 A3026 RMK A01 T00830046  RH  077%=      5-min Rain = 0
KLO1 140453Z 16006KT 08/05 A3027 RMK A01 T00830046  RH  077%=      5-min Rain = 0
KLO1 140454Z 16007KT 08/05 A3027 RMK A01 T00830045  RH  077%=      5-min Rain = 0
KLO1 140455Z 16007KT 08/05 A3027 RMK A01 T00820045  RH  077%=      5-min Rain = 0
KLO1 140456Z 16007KT 08/04 A3027 RMK A01 T00810044  RH  078%=      5-min Rain = 0
KLO1 140457Z 16007KT 08/04 A3027 RMK A01 T00810044  RH  078%=      5-min Rain = 0
KLO1 140458Z 16007KT 08/04 A3027 RMK A01 T00800044  RH  078%=      5-min Rain = 0
KLO1 140459Z 16007KT 08/04 A3026 RMK A01 T00800044  RH  078%=      5-min Rain = 0
KLO1 140500Z 16007KT 08/04 A3026 RMK A01 T00800044  RH  078%=      5-min Rain = 0
KLO1 140501Z 16007KT 08/04 A3026 RMK A01 T00790044  RH  078%=      5-min Rain = 0
KLO1 140502Z 16007KT 08/04 A3026 RMK A01 T00800044  RH  078%=      5-min Rain = 0
KLO1 140503Z 16007KT 08/04 A3026 RMK A01 T00790044  RH  078%=      5-min Rain = 0
KLO1 140504Z 16006KT 08/04 A3026 RMK A01 T00790043  RH  078%=      5-min Rain = 0
KLO1 140505Z 16007KT 08/04 A3026 RMK A01 T00780043  RH  079%=      5-min Rain = 0
KLO1 140506Z 16007KT 08/04 A3026 RMK A01 T00780044  RH  079%=      5-min Rain = 0
KLO1 140507Z 16006KT 08/04 A3027 RMK A01 T00780044  RH  079%=      5-min Rain = 0
KLO1 140508Z 16006KT 08/04 A3027 RMK A01 T00780044  RH  079%=      5-min Rain = 0
KLO1 140509Z 16006KT 08/04 A3027 RMK A01 T00780044  RH  079%=      5-min Rain = 0
KLO1 140510Z 16006KT 08/04 A3027 RMK A01 T00780044  RH  079%=      5-min Rain = 0
KLO1 140511Z 15006KT 08/04 A3027 RMK A01 T00780044  RH  079%=      5-min Rain = 0
KLO1 140512Z 15005KT 08/04 A3027 RMK A01 T00780043  RH  079%=      5-min Rain = 0
KLO1 140513Z 14004KT 08/04 A3027 RMK A01 T00770043  RH  079%=      5-min Rain = 0
KLO1 140514Z 14003KT 08/04 A3027 RMK A01 T00770043  RH  079%=      5-min Rain = 0
KLO1 140515Z 14003KT 08/04 A3027 RMK A01 T00760042  RH  079%=      5-min Rain = 0
KLO1 140516Z 14002KT 08/04 A3027 RMK A01 T00760042  RH  079%=      5-min Rain = 0
KLO1 140517Z 14002KT 08/04 A3027 RMK A01 T00760043  RH  079%=      5-min Rain = 0
KLO1 140518Z 15001KT 08/04 A3027 RMK A01 T00760042  RH  079%=      5-min Rain = 0
KLO1 140519Z 16001KT 08/04 A3027 RMK A01 T00760042  RH  079%=      5-min Rain = 0
KLO1 140520Z 17002KT 08/04 A3027 RMK A01 T00750043  RH  080%=      5-min Rain = 0
KLO1 140521Z 17003KT 08/04 A3027 RMK A01 T00750043  RH  080%=      5-min Rain = 0
KLO1 140522Z 18003KT 08/04 A3027 RMK A01 T00750044  RH  081%=      5-min Rain = 0
KLO1 140523Z 18003KT 08/04 A3027 RMK A01 T00760044  RH  081%=      5-min Rain = 0
KLO1 140524Z 18003KT 08/05 A3027 RMK A01 T00760046  RH  081%=      5-min Rain = 0
KLO1 140525Z 18003KT 08/05 A3027 RMK A01 T00780047  RH  081%=      5-min Rain = 0
KLO1 140526Z 17003KT 08/05 A3027 RMK A01 T00790048  RH  081%=      5-min Rain = 0
KLO1 140527Z 17003KT 08/05 A3027 RMK A01 T00790048  RH  081%=      5-min Rain = 0
KLO1 140528Z 16003KT 08/05 A3027 RMK A01 T00790048  RH  080%=      5-min Rain = 0
KLO1 140529Z 16003KT 08/05 A3027 RMK A01 T00790047  RH  080%=      5-min Rain = 0
KLO1 140530Z 16003KT 08/05 A3027 RMK A01 T00790047  RH  080%=      5-min Rain = 0
KLO1 140531Z 15004KT 08/05 A3026 RMK A01 T00790047  RH  080%=      5-min Rain = 0
KLO1 140532Z 15004KT 08/05 A3026 RMK A01 T00790047  RH  080%=      5-min Rain = 0
KLO1 140533Z 15004KT 08/05 A3026 RMK A01 T00790047  RH  080%=      5-min Rain = 0
KLO1 140534Z 15004KT 08/05 A3026 RMK A01 T00790046  RH  080%=      5-min Rain = 0
KLO1 140535Z 15005KT 08/04 A3026 RMK A01 T00780044  RH  079%=      5-min Rain = 0
KLO1 140536Z 15005KT 08/04 A3026 RMK A01 T00770044  RH  079%=      5-min Rain = 0
KLO1 140537Z 15005KT 08/05 A3026 RMK A01 T00770045  RH  080%=      5-min Rain = 0
KLO1 140538Z 15005KT 08/05 A3026 RMK A01 T00770045  RH  080%=      5-min Rain = 0
KLO1 140539Z 15004KT 08/04 A3026 RMK A01 T00770043  RH  079%=      5-min Rain = 0
KLO1 140540Z 15004KT 08/04 A3026 RMK A01 T00760042  RH  079%=      5-min Rain = 0
KLO1 140541Z 16004KT 08/04 A3026 RMK A01 T00760042  RH  079%=      5-min Rain = 0
KLO1 140542Z 16004KT 08/04 A3026 RMK A01 T00750042  RH  079%=      5-min Rain = 0
KLO1 140543Z 16005KT 08/04 A3026 RMK A01 T00750042  RH  079%=      5-min Rain = 0
KLO1 140544Z 16005KT 08/04 A3026 RMK A01 T00750042  RH  079%=      5-min Rain = 0
KLO1 140545Z 16005KT 08/04 A3026 RMK A01 T00750042  RH  079%=      5-min Rain = 0
KLO1 140546Z 16006KT 08/04 A3026 RMK A01 T00750043  RH  080%=      5-min Rain = 0
KLO1 140547Z 16006KT 08/04 A3026 RMK A01 T00760044  RH  080%=      5-min Rain = 0
KLO1 140548Z 16006KT 08/04 A3026 RMK A01 T00760044  RH  080%=      5-min Rain = 0
KLO1 140549Z 16006KT 08/04 A3026 RMK A01 T00770044  RH  079%=      5-min Rain = 0
KLO1 140550Z 16007KT 08/04 A3026 RMK A01 T00770043  RH  079%=      5-min Rain = 0
KLO1 140551Z 16007KT 08/04 A3026 RMK A01 T00780043  RH  079%=      5-min Rain = 0
KLO1 140552Z 16007KT 08/04 A3026 RMK A01 T00780044  RH  079%=      5-min Rain = 0
KLO1 140553Z 16007KT 08/04 A3026 RMK A01 T00780044  RH  079%=      5-min Rain = 0
KLO1 140554Z 16006KT 08/04 A3026 RMK A01 T00780043  RH  079%=      5-min Rain = 0
KLO1 140555Z 17006KT 08/04 A3026 RMK A01 T00780044  RH  079%=      5-min Rain = 0
KLO1 140556Z 17006KT 08/04 A3026 RMK A01 T00780044  RH  079%=      5-min Rain = 0
KLO1 140557Z 17006KT 08/04 A3026 RMK A01 T00780044  RH  079%=      5-min Rain = 0
KLO1 140558Z 17006KT 08/05 A3027 RMK A01 T00780045  RH  079%=      5-min Rain = 0
KLO1 140559Z 17005KT 08/05 A3026 RMK A01 T00790046  RH  080%=      5-min Rain = 0

Page generated in 0.125 seconds.